www.cux-wetter.de
Wetterdaten: Sonntag, 27.12.2015
Datum Zeit Temp. A. Feuchte A. Luftdruck Regen Wind Richtung Richtung Sonnenschein Solar Taupunkt Windchill Windben
27.12.2015 00:00 11,6 C 88 % 1017,1 hPa 0,0 l/m 20,5 km/h (4 Bft) SW 227 0 min 0 W/m 9,7 C 5,2 C 30,6 km/h (5 Bft)
27.12.2015 00:03 11,5 C 89 % 1017,0 hPa 0,0 l/m 20,6 km/h (4 Bft) W 264 0 min 0 W/m 9,8 C 5,0 C 29,0 km/h (5 Bft)
27.12.2015 00:06 11,5 C 89 % 1016,9 hPa 0,0 l/m 21,2 km/h (4 Bft) S-SW 200 0 min 0 W/m 9,8 C 4,9 C 33,8 km/h (5 Bft)
27.12.2015 00:09 11,5 C 89 % 1016,9 hPa 0,0 l/m 17,1 km/h (3 Bft) S-SW 201 0 min 0 W/m 9,8 C 6,2 C 24,1 km/h (4 Bft)
27.12.2015 00:12 11,5 C 89 % 1017,0 hPa 0,0 l/m 20,2 km/h (4 Bft) SW 230 0 min 0 W/m 9,8 C 5,2 C 30,6 km/h (5 Bft)
27.12.2015 00:15 11,5 C 89 % 1017,1 hPa 0,0 l/m 20,8 km/h (4 Bft) SW 236 0 min 0 W/m 9,8 C 5,0 C 35,4 km/h (5 Bft)
27.12.2015 00:18 11,5 C 89 % 1017,1 hPa 0,0 l/m 20,3 km/h (4 Bft) SW 225 0 min 0 W/m 9,8 C 5,1 C 33,8 km/h (5 Bft)
27.12.2015 00:21 11,5 C 89 % 1017,1 hPa 0,0 l/m 19,6 km/h (3 Bft) W-SW 245 0 min 0 W/m 9,8 C 5,3 C 29,0 km/h (5 Bft)
27.12.2015 00:24 11,5 C 89 % 1017,2 hPa 0,0 l/m 17,3 km/h (3 Bft) SW 224 0 min 0 W/m 9,8 C 6,1 C 22,5 km/h (4 Bft)
27.12.2015 00:27 11,5 C 89 % 1017,3 hPa 0,0 l/m 21,9 km/h (4 Bft) SW 214 0 min 0 W/m 9,8 C 4,7 C 30,6 km/h (5 Bft)
27.12.2015 00:30 11,5 C 89 % 1017,2 hPa 0,0 l/m 20,2 km/h (4 Bft) SW 221 0 min 0 W/m 9,8 C 5,2 C 37,0 km/h (5 Bft)
27.12.2015 00:33 11,4 C 88 % 1017,2 hPa 0,0 l/m 21,1 km/h (4 Bft) S-SW 198 0 min 0 W/m 9,5 C 4,8 C 35,4 km/h (5 Bft)
27.12.2015 00:36 11,4 C 88 % 1017,2 hPa 0,0 l/m 22,4 km/h (4 Bft) SW 217 0 min 0 W/m 9,5 C 4,4 C 37,0 km/h (5 Bft)
27.12.2015 00:39 11,4 C 88 % 1017,2 hPa 0,0 l/m 21,5 km/h (4 Bft) S-SW 213 0 min 0 W/m 9,5 C 4,7 C 37,0 km/h (5 Bft)
27.12.2015 00:42 11,4 C 88 % 1017,2 hPa 0,0 l/m 22,1 km/h (4 Bft) S-SW 199 0 min 0 W/m 9,5 C 4,5 C 29,0 km/h (5 Bft)
27.12.2015 00:45 11,4 C 88 % 1017,2 hPa 0,0 l/m 20,3 km/h (4 Bft) SW 221 0 min 0 W/m 9,5 C 5,0 C 30,6 km/h (5 Bft)
27.12.2015 00:48 11,4 C 88 % 1017,1 hPa 0,0 l/m 21,2 km/h (4 Bft) S 190 0 min 0 W/m 9,5 C 4,7 C 30,6 km/h (5 Bft)
27.12.2015 00:51 11,4 C 88 % 1017,2 hPa 0,0 l/m 17,8 km/h (3 Bft) S 182 0 min 0 W/m 9,5 C 5,8 C 27,4 km/h (5 Bft)
27.12.2015 00:54 11,3 C 88 % 1017,1 hPa 0,0 l/m 22,9 km/h (4 Bft) S-SW 206 0 min 0 W/m 9,4 C 4,1 C 37,0 km/h (5 Bft)
27.12.2015 00:57 11,3 C 88 % 1017,0 hPa 0,0 l/m 19,6 km/h (3 Bft) SW 223 0 min 0 W/m 9,4 C 5,1 C 33,8 km/h (5 Bft)
27.12.2015 01:00 11,3 C 88 % 1017,0 hPa 0,0 l/m 19,3 km/h (3 Bft) S 187 0 min 0 W/m 9,4 C 5,2 C 29,0 km/h (5 Bft)
27.12.2015 01:03 11,3 C 88 % 1016,9 hPa 0,0 l/m 20,0 km/h (4 Bft) S 183 0 min 0 W/m 9,4 C 5,0 C 33,8 km/h (5 Bft)
27.12.2015 01:06 11,2 C 88 % 1016,9 hPa 0,0 l/m 20,3 km/h (4 Bft) SW 223 0 min 0 W/m 9,3 C 4,7 C 33,8 km/h (5 Bft)
27.12.2015 01:09 11,2 C 88 % 1017,0 hPa 0,0 l/m 21,1 km/h (4 Bft) SW 232 0 min 0 W/m 9,3 C 4,5 C 32,2 km/h (5 Bft)
27.12.2015 01:12 11,2 C 88 % 1016,9 hPa 0,0 l/m 19,7 km/h (3 Bft) SW 233 0 min 0 W/m 9,3 C 4,9 C 29,0 km/h (5 Bft)
27.12.2015 01:15 11,2 C 88 % 1016,9 hPa 0,0 l/m 20,0 km/h (4 Bft) S-SW 212 0 min 0 W/m 9,3 C 4,8 C 32,2 km/h (5 Bft)
27.12.2015 01:18 11,2 C 88 % 1016,8 hPa 0,0 l/m 20,3 km/h (4 Bft) W-SW 242 0 min 0 W/m 9,3 C 4,7 C 32,2 km/h (5 Bft)
27.12.2015 01:21 11,2 C 88 % 1016,7 hPa 0,0 l/m 20,5 km/h (4 Bft) S-SW 207 0 min 0 W/m 9,3 C 4,7 C 35,4 km/h (5 Bft)
27.12.2015 01:24 11,2 C 88 % 1016,7 hPa 0,0 l/m 20,2 km/h (4 Bft) W-SW 247 0 min 0 W/m 9,3 C 4,8 C 35,4 km/h (5 Bft)
27.12.2015 01:27 11,2 C 88 % 1016,6 hPa 0,0 l/m 19,5 km/h (3 Bft) SW 234 0 min 0 W/m 9,3 C 5,0 C 37,0 km/h (5 Bft)
27.12.2015 01:30 11,2 C 88 % 1016,5 hPa 0,0 l/m 19,5 km/h (3 Bft) S-SW 213 0 min 0 W/m 9,3 C 5,0 C 32,2 km/h (5 Bft)
27.12.2015 01:33 11,2 C 88 % 1016,6 hPa 0,0 l/m 16,8 km/h (3 Bft) S-SW 205 0 min 0 W/m 9,3 C 5,9 C 25,7 km/h (4 Bft)
27.12.2015 01:36 11,2 C 88 % 1016,6 hPa 0,0 l/m 21,2 km/h (4 Bft) S-SW 202 0 min 0 W/m 9,3 C 4,5 C 37,0 km/h (5 Bft)
27.12.2015 01:39 11,2 C 87 % 1016,6 hPa 0,0 l/m 20,0 km/h (4 Bft) W-SW 244 0 min 0 W/m 9,1 C 4,8 C 30,6 km/h (5 Bft)
27.12.2015 01:42 11,2 C 87 % 1016,5 hPa 0,0 l/m 22,2 km/h (4 Bft) S-SW 213 0 min 0 W/m 9,1 C 4,2 C 30,6 km/h (5 Bft)
27.12.2015 01:45 11,2 C 87 % 1016,4 hPa 0,0 l/m 20,8 km/h (4 Bft) SW 235 0 min 0 W/m 9,1 C 4,6 C 37,0 km/h (5 Bft)
27.12.2015 01:48 11,2 C 87 % 1016,4 hPa 0,0 l/m 20,8 km/h (4 Bft) S-SW 205 0 min 0 W/m 9,1 C 4,6 C 30,6 km/h (5 Bft)
27.12.2015 01:51 11,2 C 87 % 1016,4 hPa 0,0 l/m 21,3 km/h (4 Bft) S 171 0 min 0 W/m 9,1 C 4,4 C 32,2 km/h (5 Bft)
27.12.2015 01:54 11,2 C 87 % 1016,4 hPa 0,0 l/m 23,0 km/h (4 Bft) SW 223 0 min 0 W/m 9,1 C 4,0 C 46,7 km/h (6 Bft)
27.12.2015 01:57 11,3 C 87 % 1016,4 hPa 0,0 l/m 18,2 km/h (3 Bft) S-SW 200 0 min 0 W/m 9,2 C 5,5 C 27,4 km/h (5 Bft)
27.12.2015 02:00 11,3 C 86 % 1016,4 hPa 0,0 l/m 20,5 km/h (4 Bft) SW 236 0 min 0 W/m 9,0 C 4,8 C 30,6 km/h (5 Bft)
27.12.2015 02:03 11,3 C 86 % 1016,5 hPa 0,0 l/m 21,3 km/h (4 Bft) S-SW 196 0 min 0 W/m 9,0 C 4,6 C 30,6 km/h (5 Bft)
27.12.2015 02:06 11,3 C 86 % 1016,5 hPa 0,0 l/m 21,0 km/h (4 Bft) SW 223 0 min 0 W/m 9,0 C 4,7 C 30,6 km/h (5 Bft)
27.12.2015 02:09 11,3 C 86 % 1016,5 hPa 0,0 l/m 20,0 km/h (4 Bft) S-SW 204 0 min 0 W/m 9,0 C 5,0 C 27,4 km/h (5 Bft)
27.12.2015 02:12 11,3 C 86 % 1016,5 hPa 0,0 l/m 22,2 km/h (4 Bft) SW 225 0 min 0 W/m 9,0 C 4,3 C 33,8 km/h (5 Bft)
27.12.2015 02:15 11,4 C 85 % 1016,5 hPa 0,0 l/m 24,8 km/h (4 Bft) SW 214 0 min 0 W/m 9,0 C 3,8 C 41,8 km/h (6 Bft)
27.12.2015 02:18 11,4 C 85 % 1016,7 hPa 0,0 l/m 22,3 km/h (4 Bft) SW 225 0 min 0 W/m 9,0 C 4,4 C 35,4 km/h (5 Bft)
27.12.2015 02:21 11,4 C 85 % 1016,6 hPa 0,0 l/m 23,4 km/h (4 Bft) SW 215 0 min 0 W/m 9,0 C 4,1 C 30,6 km/h (5 Bft)
27.12.2015 02:24 11,4 C 85 % 1016,6 hPa 0,0 l/m 19,4 km/h (3 Bft) S-SW 205 0 min 0 W/m 9,0 C 5,3 C 27,4 km/h (5 Bft)
27.12.2015 02:27 11,5 C 85 % 1016,5 hPa 0,0 l/m 19,7 km/h (3 Bft) S-SW 197 0 min 0 W/m 9,1 C 5,3 C 30,6 km/h (5 Bft)
27.12.2015 02:30 11,4 C 85 % 1016,6 hPa 0,0 l/m 21,1 km/h (4 Bft) W-SW 240 0 min 0 W/m 9,0 C 4,8 C 29,0 km/h (5 Bft)
27.12.2015 02:33 11,5 C 85 % 1016,7 hPa 0,0 l/m 21,6 km/h (4 Bft) W-SW 257 0 min 0 W/m 9,1 C 4,8 C 33,8 km/h (5 Bft)
27.12.2015 02:36 11,5 C 85 % 1016,7 hPa 0,0 l/m 20,6 km/h (4 Bft) S-SW 210 0 min 0 W/m 9,1 C 5,0 C 30,6 km/h (5 Bft)
27.12.2015 02:39 11,4 C 85 % 1016,6 hPa 0,0 l/m 22,3 km/h (4 Bft) W-SW 256 0 min 0 W/m 9,0 C 4,4 C 32,2 km/h (5 Bft)
27.12.2015 02:42 11,4 C 85 % 1016,5 hPa 0,0 l/m 20,4 km/h (4 Bft) S 188 0 min 0 W/m 9,0 C 5,0 C 29,0 km/h (5 Bft)
27.12.2015 02:45 11,5 C 85 % 1016,4 hPa 0,0 l/m 21,9 km/h (4 Bft) SW 236 0 min 0 W/m 9,1 C 4,7 C 35,4 km/h (5 Bft)
27.12.2015 02:48 11,5 C 85 % 1016,4 hPa 0,0 l/m 25,7 km/h (4 Bft) SW 221 0 min 0 W/m 9,1 C 3,7 C 37,0 km/h (5 Bft)
27.12.2015 02:51 11,5 C 84 % 1016,4 hPa 0,0 l/m 22,5 km/h (4 Bft) SW 219 0 min 0 W/m 8,9 C 4,5 C 32,2 km/h (5 Bft)
27.12.2015 02:54 11,6 C 84 % 1016,4 hPa 0,0 l/m 21,4 km/h (4 Bft) W-SW 244 0 min 0 W/m 9,0 C 4,9 C 35,4 km/h (5 Bft)
27.12.2015 02:57 11,6 C 84 % 1016,4 hPa 0,0 l/m 23,6 km/h (4 Bft) SW 236 0 min 0 W/m 9,0 C 4,3 C 33,8 km/h (5 Bft)
27.12.2015 03:00 11,6 C 84 % 1016,4 hPa 0,0 l/m 20,8 km/h (4 Bft) S-SW 201 0 min 0 W/m 9,0 C 5,1 C 30,6 km/h (5 Bft)
27.12.2015 03:03 11,6 C 84 % 1016,4 hPa 0,0 l/m 24,7 km/h (4 Bft) S-SW 211 0 min 0 W/m 9,0 C 4,1 C 40,2 km/h (6 Bft)
27.12.2015 03:06 11,7 C 84 % 1016,4 hPa 0,0 l/m 22,1 km/h (4 Bft) S-SW 200 0 min 0 W/m 9,1 C 4,9 C 37,0 km/h (5 Bft)
27.12.2015 03:09 11,7 C 84 % 1016,5 hPa 0,0 l/m 21,4 km/h (4 Bft) SW 226 0 min 0 W/m 9,1 C 5,1 C 30,6 km/h (5 Bft)
27.12.2015 03:12 11,7 C 84 % 1016,3 hPa 0,0 l/m 18,1 km/h (3 Bft) W-SW 244 0 min 0 W/m 9,1 C 6,1 C 32,2 km/h (5 Bft)
27.12.2015 03:15 11,6 C 84 % 1016,3 hPa 0,0 l/m 18,1 km/h (3 Bft) S 178 0 min 0 W/m 9,0 C 6,0 C 29,0 km/h (5 Bft)
27.12.2015 03:18 11,6 C 84 % 1016,4 hPa 0,0 l/m 19,8 km/h (3 Bft) SW 234 0 min 0 W/m 9,0 C 5,4 C 33,8 km/h (5 Bft)
27.12.2015 03:21 11,6 C 84 % 1016,4 hPa 0,0 l/m 21,9 km/h (4 Bft) S-SW 210 0 min 0 W/m 9,0 C 4,8 C 35,4 km/h (5 Bft)
27.12.2015 03:24 11,5 C 84 % 1016,3 hPa 0,0 l/m 18,2 km/h (3 Bft) SW 227 0 min 0 W/m 8,9 C 5,8 C 29,0 km/h (5 Bft)
27.12.2015 03:27 11,5 C 84 % 1016,2 hPa 0,0 l/m 20,8 km/h (4 Bft) S-SW 205 0 min 0 W/m 8,9 C 5,0 C 33,8 km/h (5 Bft)
27.12.2015 03:30 11,4 C 84 % 1016,2 hPa 0,0 l/m 18,4 km/h (3 Bft) S-SW 205 0 min 0 W/m 8,8 C 5,6 C 32,2 km/h (5 Bft)
27.12.2015 03:33 11,4 C 84 % 1016,3 hPa 0,0 l/m 17,4 km/h (3 Bft) W-SW 246 0 min 0 W/m 8,8 C 5,9 C 25,7 km/h (4 Bft)
27.12.2015 03:36 11,4 C 84 % 1016,3 hPa 0,0 l/m 20,8 km/h (4 Bft) S-SW 210 0 min 0 W/m 8,8 C 4,9 C 41,8 km/h (6 Bft)
27.12.2015 03:39 11,4 C 84 % 1016,4 hPa 0,0 l/m 20,8 km/h (4 Bft) S-SW 207 0 min 0 W/m 8,8 C 4,9 C 35,4 km/h (5 Bft)
27.12.2015 03:42 11,4 C 84 % 1016,4 hPa 0,0 l/m 22,0 km/h (4 Bft) W-SW 242 0 min 0 W/m 8,8 C 4,5 C 33,8 km/h (5 Bft)
27.12.2015 03:45 11,4 C 84 % 1016,3 hPa 0,0 l/m 22,3 km/h (4 Bft) SW 218 0 min 0 W/m 8,8 C 4,4 C 33,8 km/h (5 Bft)
27.12.2015 03:48 11,4 C 84 % 1016,2 hPa 0,0 l/m 20,0 km/h (4 Bft) SW 221 0 min 0 W/m 8,8 C 5,1 C 35,4 km/h (5 Bft)
27.12.2015 03:51 11,4 C 84 % 1016,2 hPa 0,0 l/m 23,3 km/h (4 Bft) W-SW 246 0 min 0 W/m 8,8 C 4,2 C 38,6 km/h (6 Bft)
27.12.2015 03:54 11,4 C 84 % 1016,3 hPa 0,0 l/m 21,5 km/h (4 Bft) S-SW 201 0 min 0 W/m 8,8 C 4,7 C 38,6 km/h (6 Bft)
27.12.2015 03:57 11,3 C 84 % 1016,3 hPa 0,0 l/m 18,6 km/h (3 Bft) S 188 0 min 0 W/m 8,7 C 5,4 C 27,4 km/h (5 Bft)
27.12.2015 04:00 11,3 C 85 % 1016,2 hPa 0,0 l/m 20,0 km/h (4 Bft) S-SO 159 0 min 0 W/m 8,9 C 5,0 C 30,6 km/h (5 Bft)
27.12.2015 04:03 11,3 C 85 % 1016,3 hPa 0,0 l/m 23,1 km/h (4 Bft) S-SW 193 0 min 0 W/m 8,9 C 4,1 C 37,0 km/h (5 Bft)
27.12.2015 04:06 11,3 C 85 % 1016,1 hPa 0,0 l/m 21,7 km/h (4 Bft) SW 226 0 min 0 W/m 8,9 C 4,5 C 32,2 km/h (5 Bft)
27.12.2015 04:09 11,3 C 84 % 1016,1 hPa 0,0 l/m 23,1 km/h (4 Bft) SW 220 0 min 0 W/m 8,7 C 4,1 C 30,6 km/h (5 Bft)
27.12.2015 04:12 11,3 C 85 % 1016,1 hPa 0,0 l/m 21,3 km/h (4 Bft) W-SW 244 0 min 0 W/m 8,9 C 4,6 C 38,6 km/h (6 Bft)
27.12.2015 04:15 11,3 C 85 % 1015,9 hPa 0,0 l/m 20,1 km/h (4 Bft) SW 227 0 min 0 W/m 8,9 C 4,9 C 35,4 km/h (5 Bft)
27.12.2015 04:18 11,3 C 85 % 1016,0 hPa 0,0 l/m 19,4 km/h (3 Bft) W-SW 240 0 min 0 W/m 8,9 C 5,2 C 30,6 km/h (5 Bft)
27.12.2015 04:21 11,3 C 85 % 1015,9 hPa 0,0 l/m 20,9 km/h (4 Bft) S-SO 164 0 min 0 W/m 8,9 C 4,7 C 33,8 km/h (5 Bft)
27.12.2015 04:24 11,3 C 85 % 1015,9 hPa 0,0 l/m 22,7 km/h (4 Bft) W 279 0 min 0 W/m 8,9 C 4,2 C 38,6 km/h (6 Bft)
27.12.2015 04:27 11,3 C 85 % 1015,9 hPa 0,0 l/m 20,7 km/h (4 Bft) SW 225 0 min 0 W/m 8,9 C 4,8 C 33,8 km/h (5 Bft)
27.12.2015 04:30 11,3 C 85 % 1016,0 hPa 0,0 l/m 19,7 km/h (3 Bft) S-SW 202 0 min 0 W/m 8,9 C 5,1 C 33,8 km/h (5 Bft)
27.12.2015 04:33 11,3 C 85 % 1016,0 hPa 0,0 l/m 21,8 km/h (4 Bft) SW 228 0 min 0 W/m 8,9 C 4,4 C 37,0 km/h (5 Bft)
27.12.2015 04:36 11,3 C 85 % 1015,9 hPa 0,0 l/m 22,8 km/h (4 Bft) SW 228 0 min 0 W/m 8,9 C 4,2 C 33,8 km/h (5 Bft)
27.12.2015 04:39 11,4 C 85 % 1015,9 hPa 0,0 l/m 20,7 km/h (4 Bft) S-SW 201 0 min 0 W/m 9,0 C 4,9 C 32,2 km/h (5 Bft)
27.12.2015 04:42 11,3 C 85 % 1015,8 hPa 0,0 l/m 18,7 km/h (3 Bft) SW 221 0 min 0 W/m 8,9 C 5,4 C 35,4 km/h (5 Bft)
27.12.2015 04:45 11,3 C 85 % 1015,8 hPa 0,0 l/m 19,6 km/h (3 Bft) S-SW 205 0 min 0 W/m 8,9 C 5,1 C 30,6 km/h (5 Bft)
27.12.2015 04:48 11,4 C 85 % 1015,8 hPa 0,0 l/m 22,4 km/h (4 Bft) S-SW 195 0 min 0 W/m 9,0 C 4,4 C 38,6 km/h (6 Bft)
27.12.2015 04:51 11,4 C 85 % 1015,8 hPa 0,0 l/m 20,0 km/h (4 Bft) S 191 0 min 0 W/m 9,0 C 5,1 C 30,6 km/h (5 Bft)
27.12.2015 04:54 11,4 C 85 % 1015,9 hPa 0,0 l/m 20,4 km/h (4 Bft) SW 234 0 min 0 W/m 9,0 C 5,0 C 32,2 km/h (5 Bft)
27.12.2015 04:57 11,4 C 84 % 1015,9 hPa 0,0 l/m 22,7 km/h (4 Bft) S-SW 205 0 min 0 W/m 8,8 C 4,3 C 37,0 km/h (5 Bft)
27.12.2015 05:00 11,5 C 84 % 1016,1 hPa 0,0 l/m 22,1 km/h (4 Bft) SW 225 0 min 0 W/m 8,9 C 4,6 C 37,0 km/h (5 Bft)
27.12.2015 05:03 11,5 C 84 % 1016,0 hPa 0,0 l/m 22,2 km/h (4 Bft) W-SW 237 0 min 0 W/m 8,9 C 4,6 C 35,4 km/h (5 Bft)
27.12.2015 05:06 11,5 C 84 % 1016,1 hPa 0,0 l/m 21,1 km/h (4 Bft) SW 231 0 min 0 W/m 8,9 C 4,9 C 29,0 km/h (5 Bft)
27.12.2015 05:09 11,5 C 84 % 1016,1 hPa 0,0 l/m 19,8 km/h (3 Bft) S 178 0 min 0 W/m 8,9 C 5,3 C 33,8 km/h (5 Bft)
27.12.2015 05:12 11,4 C 84 % 1016,0 hPa 0,0 l/m 22,5 km/h (4 Bft) SW 225 0 min 0 W/m 8,8 C 4,4 C 32,2 km/h (5 Bft)
27.12.2015 05:15 11,5 C 84 % 1016,0 hPa 0,0 l/m 22,5 km/h (4 Bft) W-SW 240 0 min 0 W/m 8,9 C 4,5 C 33,8 km/h (5 Bft)
27.12.2015 05:18 11,4 C 84 % 1016,0 hPa 0,0 l/m 19,7 km/h (3 Bft) S 188 0 min 0 W/m 8,8 C 5,2 C 30,6 km/h (5 Bft)
27.12.2015 05:21 11,4 C 84 % 1015,9 hPa 0,0 l/m 20,1 km/h (4 Bft) S-SW 198 0 min 0 W/m 8,8 C 5,1 C 33,8 km/h (5 Bft)
27.12.2015 05:24 11,4 C 84 % 1015,9 hPa 0,0 l/m 23,9 km/h (4 Bft) S 189 0 min 0 W/m 8,8 C 4,0 C 35,4 km/h (5 Bft)
27.12.2015 05:27 11,4 C 84 % 1015,8 hPa 0,0 l/m 21,6 km/h (4 Bft) SW 233 0 min 0 W/m 8,8 C 4,6 C 35,4 km/h (5 Bft)
27.12.2015 05:30 11,4 C 84 % 1015,9 hPa 0,0 l/m 22,2 km/h (4 Bft) S-SW 194 0 min 0 W/m 8,8 C 4,5 C 37,0 km/h (5 Bft)
27.12.2015 05:33 11,4 C 84 % 1015,8 hPa 0,0 l/m 21,9 km/h (4 Bft) SW 232 0 min 0 W/m 8,8 C 4,5 C 35,4 km/h (5 Bft)
27.12.2015 05:36 11,4 C 84 % 1015,8 hPa 0,0 l/m 20,8 km/h (4 Bft) S-SW 207 0 min 0 W/m 8,8 C 4,9 C 32,2 km/h (5 Bft)
27.12.2015 05:39 11,4 C 84 % 1015,8 hPa 0,0 l/m 21,7 km/h (4 Bft) SW 229 0 min 0 W/m 8,8 C 4,6 C 37,0 km/h (5 Bft)
27.12.2015 05:42 11,4 C 84 % 1015,7 hPa 0,0 l/m 21,3 km/h (4 Bft) SW 224 0 min 0 W/m 8,8 C 4,7 C 32,2 km/h (5 Bft)
27.12.2015 05:45 11,3 C 84 % 1015,7 hPa 0,0 l/m 19,2 km/h (3 Bft) SW 229 0 min 0 W/m 8,7 C 5,2 C 27,4 km/h (5 Bft)
27.12.2015 05:48 11,3 C 84 % 1015,6 hPa 0,0 l/m 20,3 km/h (4 Bft) S 186 0 min 0 W/m 8,7 C 4,9 C 29,0 km/h (5 Bft)
27.12.2015 05:51 11,3 C 84 % 1015,5 hPa 0,0 l/m 20,8 km/h (4 Bft) SW 234 0 min 0 W/m 8,7 C 4,7 C 37,0 km/h (5 Bft)
27.12.2015 05:54 11,3 C 85 % 1015,5 hPa 0,0 l/m 21,6 km/h (4 Bft) SW 236 0 min 0 W/m 8,9 C 4,5 C 40,2 km/h (6 Bft)
27.12.2015 05:57 11,3 C 84 % 1015,6 hPa 0,0 l/m 19,7 km/h (3 Bft) W-SW 242 0 min 0 W/m 8,7 C 5,1 C 33,8 km/h (5 Bft)
27.12.2015 06:00 11,3 C 85 % 1015,6 hPa 0,0 l/m 21,8 km/h (4 Bft) W-SW 244 0 min 0 W/m 8,9 C 4,4 C 38,6 km/h (6 Bft)
27.12.2015 06:03 11,3 C 85 % 1015,6 hPa 0,0 l/m 22,6 km/h (4 Bft) W 273 0 min 0 W/m 8,9 C 4,2 C 35,4 km/h (5 Bft)
27.12.2015 06:06 11,3 C 84 % 1015,5 hPa 0,0 l/m 21,9 km/h (4 Bft) SW 217 0 min 0 W/m 8,7 C 4,4 C 33,8 km/h (5 Bft)
27.12.2015 06:09 11,3 C 85 % 1015,5 hPa 0,0 l/m 20,6 km/h (4 Bft) S-SW 194 0 min 0 W/m 8,9 C 4,8 C 33,8 km/h (5 Bft)
27.12.2015 06:12 11,3 C 85 % 1015,6 hPa 0,0 l/m 20,4 km/h (4 Bft) SW 234 0 min 0 W/m 8,9 C 4,8 C 33,8 km/h (5 Bft)
27.12.2015 06:15 11,3 C 85 % 1015,5 hPa 0,0 l/m 21,3 km/h (4 Bft) SW 227 0 min 0 W/m 8,9 C 4,6 C 35,4 km/h (5 Bft)
27.12.2015 06:18 11,3 C 85 % 1015,4 hPa 0,0 l/m 18,0 km/h (3 Bft) S-SW 202 0 min 0 W/m 8,9 C 5,6 C 32,2 km/h (5 Bft)
27.12.2015 06:21 11,2 C 85 % 1015,5 hPa 0,0 l/m 21,2 km/h (4 Bft) S-SW 196 0 min 0 W/m 8,8 C 4,5 C 32,2 km/h (5 Bft)
27.12.2015 06:24 11,2 C 85 % 1015,4 hPa 0,0 l/m 20,5 km/h (4 Bft) SW 217 0 min 0 W/m 8,8 C 4,7 C 40,2 km/h (6 Bft)
27.12.2015 06:27 11,3 C 85 % 1015,4 hPa 0,0 l/m 18,9 km/h (3 Bft) SW 217 0 min 0 W/m 8,9 C 5,3 C 27,4 km/h (5 Bft)
27.12.2015 06:30 11,3 C 85 % 1015,3 hPa 0,0 l/m 20,4 km/h (4 Bft) S 169 0 min 0 W/m 8,9 C 4,8 C 29,0 km/h (5 Bft)
27.12.2015 06:33 11,3 C 85 % 1015,2 hPa 0,0 l/m 19,3 km/h (3 Bft) S 187 0 min 0 W/m 8,9 C 5,2 C 30,6 km/h (5 Bft)
27.12.2015 06:36 11,3 C 85 % 1015,2 hPa 0,0 l/m 21,3 km/h (4 Bft) W-SW 246 0 min 0 W/m 8,9 C 4,6 C 32,2 km/h (5 Bft)
27.12.2015 06:39 11,3 C 84 % 1015,3 hPa 0,0 l/m 20,1 km/h (4 Bft) S-SW 204 0 min 0 W/m 8,7 C 4,9 C 35,4 km/h (5 Bft)
27.12.2015 06:42 11,3 C 84 % 1015,3 hPa 0,0 l/m 22,6 km/h (4 Bft) S-SW 211 0 min 0 W/m 8,7 C 4,2 C 37,0 km/h (5 Bft)
27.12.2015 06:45 11,3 C 84 % 1015,2 hPa 0,0 l/m 22,3 km/h (4 Bft) S-SW 213 0 min 0 W/m 8,7 C 4,3 C 35,4 km/h (5 Bft)
27.12.2015 06:48 11,3 C 84 % 1015,3 hPa 0,0 l/m 21,8 km/h (4 Bft) W-SW 257 0 min 0 W/m 8,7 C 4,4 C 37,0 km/h (5 Bft)
27.12.2015 06:51 11,3 C 84 % 1015,4 hPa 0,0 l/m 22,0 km/h (4 Bft) S-SW 209 0 min 0 W/m 8,7 C 4,4 C 33,8 km/h (5 Bft)
27.12.2015 06:54 11,3 C 84 % 1015,4 hPa 0,0 l/m 19,4 km/h (3 Bft) SW 217 0 min 0 W/m 8,7 C 5,2 C 32,2 km/h (5 Bft)
27.12.2015 06:57 11,3 C 84 % 1015,4 hPa 0,0 l/m 23,2 km/h (4 Bft) S 185 0 min 0 W/m 8,7 C 4,1 C 32,2 km/h (5 Bft)
27.12.2015 07:00 11,3 C 84 % 1015,5 hPa 0,0 l/m 22,3 km/h (4 Bft) SW 229 0 min 0 W/m 8,7 C 4,3 C 32,2 km/h (5 Bft)
27.12.2015 07:03 11,2 C 84 % 1015,5 hPa 0,0 l/m 20,8 km/h (4 Bft) SW 219 0 min 0 W/m 8,6 C 4,6 C 35,4 km/h (5 Bft)
27.12.2015 07:06 11,2 C 84 % 1015,3 hPa 0,0 l/m 20,3 km/h (4 Bft) S-SW 198 0 min 0 W/m 8,6 C 4,7 C 37,0 km/h (5 Bft)
27.12.2015 07:09 11,2 C 84 % 1015,5 hPa 0,0 l/m 19,9 km/h (4 Bft) S-SW 202 0 min 0 W/m 8,6 C 4,9 C 33,8 km/h (5 Bft)
27.12.2015 07:12 11,2 C 84 % 1015,3 hPa 0,0 l/m 19,3 km/h (3 Bft) SW 217 0 min 0 W/m 8,6 C 5,1 C 29,0 km/h (5 Bft)
27.12.2015 07:15 11,2 C 84 % 1015,3 hPa 0,0 l/m 19,2 km/h (3 Bft) S-SO 166 0 min 0 W/m 8,6 C 5,1 C 27,4 km/h (5 Bft)
27.12.2015 07:18 11,2 C 85 % 1015,4 hPa 0,0 l/m 19,9 km/h (4 Bft) S-SW 198 0 min 0 W/m 8,8 C 4,9 C 29,0 km/h (5 Bft)
27.12.2015 07:21 11,2 C 85 % 1015,4 hPa 0,0 l/m 20,4 km/h (4 Bft) S-SW 205 0 min 0 W/m 8,8 C 4,7 C 32,2 km/h (5 Bft)
27.12.2015 07:24 11,2 C 84 % 1015,4 hPa 0,0 l/m 19,8 km/h (3 Bft) W-SW 251 0 min 0 W/m 8,6 C 4,9 C 33,8 km/h (5 Bft)
27.12.2015 07:27 11,2 C 84 % 1015,4 hPa 0,0 l/m 21,0 km/h (4 Bft) S-SW 207 0 min 0 W/m 8,6 C 4,5 C 32,2 km/h (5 Bft)
27.12.2015 07:30 11,2 C 84 % 1015,4 hPa 0,0 l/m 18,9 km/h (3 Bft) W-SW 240 0 min 0 W/m 8,6 C 5,2 C 29,0 km/h (5 Bft)
27.12.2015 07:33 11,2 C 84 % 1015,5 hPa 0,0 l/m 21,1 km/h (4 Bft) S-SW 192 0 min 0 W/m 8,6 C 4,5 C 35,4 km/h (5 Bft)
27.12.2015 07:36 11,2 C 84 % 1015,6 hPa 0,0 l/m 23,8 km/h (4 Bft) S 179 0 min 0 W/m 8,6 C 3,8 C 33,8 km/h (5 Bft)
27.12.2015 07:39 11,2 C 84 % 1015,6 hPa 0,0 l/m 19,9 km/h (4 Bft) SW 220 0 min 0 W/m 8,6 C 4,9 C 30,6 km/h (5 Bft)
27.12.2015 07:42 11,2 C 84 % 1015,6 hPa 0,0 l/m 19,4 km/h (3 Bft) SW 227 0 min 0 W/m 8,6 C 5,0 C 30,6 km/h (5 Bft)
27.12.2015 07:45 11,2 C 84 % 1015,5 hPa 0,0 l/m 20,8 km/h (4 Bft) SW 216 0 min 0 W/m 8,6 C 4,6 C 33,8 km/h (5 Bft)
27.12.2015 07:48 11,2 C 84 % 1015,6 hPa 0,0 l/m 23,4 km/h (4 Bft) S-SW 204 0 min 0 W/m 8,6 C 3,9 C 35,4 km/h (5 Bft)
27.12.2015 07:51 11,2 C 84 % 1015,6 hPa 0,0 l/m 22,0 km/h (4 Bft) S-SW 195 0 min 0 W/m 8,6 C 4,2 C 30,6 km/h (5 Bft)
27.12.2015 07:54 11,2 C 84 % 1015,7 hPa 0,0 l/m 20,7 km/h (4 Bft) SW 222 0 min 0 W/m 8,6 C 4,6 C 30,6 km/h (5 Bft)
27.12.2015 07:57 11,2 C 84 % 1015,7 hPa 0,0 l/m 24,1 km/h (4 Bft) W-SW 239 0 min 0 W/m 8,6 C 3,7 C 37,0 km/h (5 Bft)
27.12.2015 08:00 11,2 C 84 % 1015,7 hPa 0,0 l/m 21,9 km/h (4 Bft) W-SW 242 0 min 0 W/m 8,6 C 4,3 C 33,8 km/h (5 Bft)
27.12.2015 08:03 11,2 C 84 % 1015,7 hPa 0,0 l/m 21,8 km/h (4 Bft) SW 214 0 min 0 W/m 8,6 C 4,3 C 33,8 km/h (5 Bft)
27.12.2015 08:06 11,3 C 84 % 1015,6 hPa 0,0 l/m 27,4 km/h (5 Bft) S-SW 206 0 min 0 W/m 8,7 C 3,0 C 41,8 km/h (6 Bft)
27.12.2015 08:09 11,3 C 84 % 1015,8 hPa 0,0 l/m 24,2 km/h (4 Bft) SW 225 0 min 0 W/m 8,7 C 3,8 C 35,4 km/h (5 Bft)
27.12.2015 08:12 11,3 C 83 % 1015,7 hPa 0,0 l/m 21,1 km/h (4 Bft) W-SW 240 0 min 0 W/m 8,5 C 4,6 C 30,6 km/h (5 Bft)
27.12.2015 08:15 11,3 C 84 % 1015,6 hPa 0,0 l/m 22,0 km/h (4 Bft) SW 231 0 min 0 W/m 8,7 C 4,4 C 32,2 km/h (5 Bft)
27.12.2015 08:18 11,3 C 84 % 1015,7 hPa 0,0 l/m 20,3 km/h (4 Bft) S 173 0 min 0 W/m 8,7 C 4,9 C 32,2 km/h (5 Bft)
27.12.2015 08:21 11,3 C 84 % 1015,7 hPa 0,0 l/m 20,3 km/h (4 Bft) SW 230 0 min 0 W/m 8,7 C 4,9 C 27,4 km/h (5 Bft)
27.12.2015 08:24 11,2 C 84 % 1015,8 hPa 0,0 l/m 23,4 km/h (4 Bft) SW 223 0 min 0 W/m 8,6 C 3,9 C 33,8 km/h (5 Bft)
27.12.2015 08:27 11,3 C 84 % 1015,8 hPa 0,0 l/m 21,7 km/h (4 Bft) SW 224 0 min 0 W/m 8,7 C 4,5 C 37,0 km/h (5 Bft)
27.12.2015 08:30 11,3 C 84 % 1015,8 hPa 0,0 l/m 22,1 km/h (4 Bft) S-SW 210 0 min 0 W/m 8,7 C 4,4 C 33,8 km/h (5 Bft)
27.12.2015 08:33 11,3 C 84 % 1015,9 hPa 0,0 l/m 22,3 km/h (4 Bft) SW 236 0 min 0 W/m 8,7 C 4,3 C 37,0 km/h (5 Bft)
27.12.2015 08:36 11,3 C 84 % 1015,9 hPa 0,0 l/m 25,2 km/h (4 Bft) S-SW 209 0 min 0 W/m 8,7 C 3,5 C 38,6 km/h (6 Bft)
27.12.2015 08:39 11,3 C 84 % 1015,9 hPa 0,0 l/m 22,3 km/h (4 Bft) W 259 0 min 0 W/m 8,7 C 4,3 C 32,2 km/h (5 Bft)
27.12.2015 08:42 11,3 C 84 % 1015,9 hPa 0,0 l/m 22,0 km/h (4 Bft) S-SW 197 0 min 0 W/m 8,7 C 4,4 C 30,6 km/h (5 Bft)
27.12.2015 08:45 11,3 C 84 % 1016,0 hPa 0,0 l/m 25,1 km/h (4 Bft) SW 229 0 min 0 W/m 8,7 C 3,6 C 38,6 km/h (6 Bft)
27.12.2015 08:48 11,3 C 83 % 1016,0 hPa 0,0 l/m 24,3 km/h (4 Bft) W-SW 254 0 min 0 W/m 8,5 C 3,8 C 37,0 km/h (5 Bft)
27.12.2015 08:51 11,3 C 83 % 1016,1 hPa 0,0 l/m 23,3 km/h (4 Bft) SW 221 0 min 0 W/m 8,5 C 4,0 C 35,4 km/h (5 Bft)
27.12.2015 08:54 11,3 C 83 % 1016,2 hPa 0,0 l/m 24,0 km/h (4 Bft) SW 225 0 min 0 W/m 8,5 C 3,8 C 33,8 km/h (5 Bft)
27.12.2015 08:57 11,3 C 83 % 1016,3 hPa 0,0 l/m 24,1 km/h (4 Bft) W-SW 242 0 min 0 W/m 8,5 C 3,8 C 41,8 km/h (6 Bft)
27.12.2015 09:00 11,3 C 83 % 1016,3 hPa 0,0 l/m 23,4 km/h (4 Bft) SW 231 0 min 0 W/m 8,5 C 4,0 C 38,6 km/h (6 Bft)
27.12.2015 09:03 11,3 C 84 % 1016,2 hPa 0,0 l/m 21,7 km/h (4 Bft) SW 225 0 min 0 W/m 8,7 C 4,5 C 32,2 km/h (5 Bft)
27.12.2015 09:06 11,4 C 84 % 1016,2 hPa 0,0 l/m 24,1 km/h (4 Bft) S-SW 200 0 min 0 W/m 8,8 C 4,0 C 38,6 km/h (6 Bft)
27.12.2015 09:09 11,4 C 84 % 1016,3 hPa 0,0 l/m 22,3 km/h (4 Bft) SW 226 0 min 0 W/m 8,8 C 4,4 C 33,8 km/h (5 Bft)
27.12.2015 09:12 11,4 C 84 % 1016,2 hPa 0,0 l/m 24,8 km/h (4 Bft) S-SW 213 0 min 0 W/m 8,8 C 3,8 C 37,0 km/h (5 Bft)
27.12.2015 09:15 11,3 C 84 % 1016,3 hPa 0,0 l/m 24,6 km/h (4 Bft) SW 227 0 min 0 W/m 8,7 C 3,7 C 38,6 km/h (6 Bft)
27.12.2015 09:18 11,3 C 84 % 1016,3 hPa 0,0 l/m 22,6 km/h (4 Bft) S-SW 206 0 min 0 W/m 8,7 C 4,2 C 32,2 km/h (5 Bft)
27.12.2015 09:21 11,3 C 84 % 1016,2 hPa 0,0 l/m 24,2 km/h (4 Bft) W 261 0 min 0 W/m 8,7 C 3,8 C 40,2 km/h (6 Bft)
27.12.2015 09:24 11,3 C 84 % 1016,3 hPa 0,0 l/m 21,1 km/h (4 Bft) S-SW 208 0 min 0 W/m 8,7 C 4,6 C 40,2 km/h (6 Bft)
27.12.2015 09:27 11,3 C 84 % 1016,2 hPa 0,0 l/m 21,0 km/h (4 Bft) SW 221 0 min 0 W/m 8,7 C 4,7 C 35,4 km/h (5 Bft)
27.12.2015 09:30 11,3 C 84 % 1016,4 hPa 0,0 l/m 20,1 km/h (4 Bft) SW 227 0 min 0 W/m 8,7 C 4,9 C 32,2 km/h (5 Bft)
27.12.2015 09:33 11,3 C 84 % 1016,3 hPa 0,0 l/m 24,7 km/h (4 Bft) W-SW 249 0 min 0 W/m 8,7 C 3,7 C 37,0 km/h (5 Bft)
27.12.2015 09:36 11,3 C 84 % 1016,4 hPa 0,0 l/m 23,0 km/h (4 Bft) SW 236 0 min 0 W/m 8,7 C 4,1 C 38,6 km/h (6 Bft)
27.12.2015 09:39 11,3 C 84 % 1016,4 hPa 0,0 l/m 25,7 km/h (4 Bft) S-SW 202 0 min 5 W/m 8,7 C 3,4 C 37,0 km/h (5 Bft)
27.12.2015 09:42 11,3 C 84 % 1016,5 hPa 0,0 l/m 23,3 km/h (4 Bft) W-SW 250 0 min 5 W/m 8,7 C 4,0 C 35,4 km/h (5 Bft)
27.12.2015 09:45 11,3 C 84 % 1016,6 hPa 0,0 l/m 25,0 km/h (4 Bft) S-SW 207 0 min 7 W/m 8,7 C 3,6 C 37,0 km/h (5 Bft)
27.12.2015 09:48 11,3 C 84 % 1016,5 hPa 0,0 l/m 26,0 km/h (4 Bft) W-SW 256 0 min 7 W/m 8,7 C 3,4 C 37,0 km/h (5 Bft)
27.12.2015 09:51 11,3 C 84 % 1016,6 hPa 0,0 l/m 22,7 km/h (4 Bft) S-SW 199 0 min 7 W/m 8,7 C 4,2 C 33,8 km/h (5 Bft)
27.12.2015 09:54 11,3 C 84 % 1016,6 hPa 0,0 l/m 22,5 km/h (4 Bft) SW 228 0 min 11 W/m 8,7 C 4,2 C 37,0 km/h (5 Bft)
27.12.2015 09:57 11,4 C 84 % 1016,6 hPa 0,0 l/m 24,9 km/h (4 Bft) SW 229 0 min 12 W/m 8,8 C 3,8 C 37,0 km/h (5 Bft)
27.12.2015 10:00 11,4 C 84 % 1016,6 hPa 0,0 l/m 24,3 km/h (4 Bft) SW 219 0 min 12 W/m 8,8 C 3,9 C 40,2 km/h (6 Bft)
27.12.2015 10:03 11,4 C 84 % 1016,7 hPa 0,0 l/m 21,2 km/h (4 Bft) S-SW 205 0 min 12 W/m 8,8 C 4,7 C 30,6 km/h (5 Bft)
27.12.2015 10:06 11,4 C 84 % 1016,7 hPa 0,0 l/m 21,6 km/h (4 Bft) S 186 0 min 16 W/m 8,8 C 4,6 C 30,6 km/h (5 Bft)
27.12.2015 10:09 11,4 C 84 % 1016,7 hPa 0,0 l/m 22,1 km/h (4 Bft) SW 222 0 min 16 W/m 8,8 C 4,5 C 32,2 km/h (5 Bft)
27.12.2015 10:12 11,4 C 84 % 1016,7 hPa 0,0 l/m 22,9 km/h (4 Bft) S-SW 207 0 min 16 W/m 8,8 C 4,3 C 33,8 km/h (5 Bft)
27.12.2015 10:15 11,4 C 84 % 1016,8 hPa 0,0 l/m 22,9 km/h (4 Bft) S-SW 210 0 min 16 W/m 8,8 C 4,3 C 33,8 km/h (5 Bft)
27.12.2015 10:18 11,4 C 84 % 1016,9 hPa 0,0 l/m 23,8 km/h (4 Bft) SW 214 0 min 14 W/m 8,8 C 4,0 C 35,4 km/h (5 Bft)
27.12.2015 10:21 11,4 C 84 % 1016,9 hPa 0,0 l/m 26,7 km/h (4 Bft) SW 233 0 min 9 W/m 8,8 C 3,3 C 38,6 km/h (6 Bft)
27.12.2015 10:24 11,4 C 85 % 1017,0 hPa 0,0 l/m 26,3 km/h (4 Bft) W-SW 238 0 min 9 W/m 9,0 C 3,4 C 38,6 km/h (6 Bft)
27.12.2015 10:27 11,3 C 85 % 1017,1 hPa 0,0 l/m 22,4 km/h (4 Bft) S 187 0 min 9 W/m 8,9 C 4,3 C 35,4 km/h (5 Bft)
27.12.2015 10:30 11,3 C 86 % 1017,2 hPa 0,0 l/m 21,8 km/h (4 Bft) SW 236 0 min 7 W/m 9,0 C 4,4 C 30,6 km/h (5 Bft)
27.12.2015 10:33 11,2 C 86 % 1017,1 hPa 0,0 l/m 23,5 km/h (4 Bft) SW 235 0 min 7 W/m 8,9 C 3,8 C 32,2 km/h (5 Bft)
27.12.2015 10:36 11,1 C 86 % 1017,2 hPa 0,0 l/m 23,6 km/h (4 Bft) S-SW 209 0 min 5 W/m 8,8 C 3,7 C 32,2 km/h (5 Bft)
27.12.2015 10:39 11,1 C 86 % 1017,4 hPa 0,0 l/m 24,7 km/h (4 Bft) S-SW 207 0 min 5 W/m 8,8 C 3,4 C 38,6 km/h (6 Bft)
27.12.2015 10:42 11,1 C 86 % 1017,3 hPa 0,0 l/m 26,9 km/h (4 Bft) S-SW 209 0 min 7 W/m 8,8 C 2,9 C 35,4 km/h (5 Bft)
27.12.2015 10:45 11,1 C 86 % 1017,4 hPa 0,0 l/m 21,9 km/h (4 Bft) W-SW 238 0 min 7 W/m 8,8 C 4,1 C 30,6 km/h (5 Bft)
27.12.2015 10:48 11,1 C 86 % 1017,4 hPa 0,0 l/m 22,9 km/h (4 Bft) S-SW 193 0 min 5 W/m 8,8 C 3,9 C 40,2 km/h (6 Bft)
27.12.2015 10:51 11,1 C 85 % 1017,5 hPa 0,0 l/m 25,7 km/h (4 Bft) S-SW 202 0 min 5 W/m 8,7 C 3,2 C 37,0 km/h (5 Bft)
27.12.2015 10:54 11,2 C 85 % 1017,6 hPa 0,0 l/m 20,9 km/h (4 Bft) SW 220 0 min 7 W/m 8,8 C 4,6 C 29,0 km/h (5 Bft)
27.12.2015 10:57 11,2 C 85 % 1017,6 hPa 0,0 l/m 22,3 km/h (4 Bft) S 184 0 min 5 W/m 8,8 C 4,2 C 32,2 km/h (5 Bft)
27.12.2015 11:00 11,1 C 85 % 1017,6 hPa 0,0 l/m 21,6 km/h (4 Bft) SW 228 0 min 5 W/m 8,7 C 4,2 C 30,6 km/h (5 Bft)
27.12.2015 11:03 11,1 C 85 % 1017,6 hPa 0,0 l/m 26,0 km/h (4 Bft) SW 218 0 min 7 W/m 8,7 C 3,1 C 40,2 km/h (6 Bft)
27.12.2015 11:06 11,1 C 85 % 1017,6 hPa 0,0 l/m 22,7 km/h (4 Bft) S-SW 213 0 min 7 W/m 8,7 C 3,9 C 33,8 km/h (5 Bft)
27.12.2015 11:09 11,2 C 85 % 1017,7 hPa 0,0 l/m 24,2 km/h (4 Bft) S-SW 213 0 min 7 W/m 8,8 C 3,7 C 33,8 km/h (5 Bft)
27.12.2015 11:12 11,2 C 85 % 1017,7 hPa 0,0 l/m 22,9 km/h (4 Bft) SW 214 0 min 9 W/m 8,8 C 4,0 C 30,6 km/h (5 Bft)
27.12.2015 11:15 11,2 C 86 % 1017,7 hPa 0,0 l/m 23,9 km/h (4 Bft) SW 224 0 min 9 W/m 8,9 C 3,7 C 37,0 km/h (5 Bft)
27.12.2015 11:18 11,2 C 86 % 1017,8 hPa 0,0 l/m 29,2 km/h (5 Bft) SW 222 0 min 9 W/m 8,9 C 2,5 C 45,1 km/h (6 Bft)
27.12.2015 11:21 11,2 C 86 % 1017,7 hPa 0,0 l/m 24,6 km/h (4 Bft) SW 232 0 min 11 W/m 8,9 C 3,6 C 38,6 km/h (6 Bft)
27.12.2015 11:24 11,1 C 86 % 1017,7 hPa 0,0 l/m 22,9 km/h (4 Bft) W-SW 240 0 min 16 W/m 8,8 C 3,9 C 33,8 km/h (5 Bft)
27.12.2015 11:27 11,1 C 86 % 1017,7 hPa 0,0 l/m 26,4 km/h (4 Bft) SW 227 0 min 23 W/m 8,8 C 3,0 C 41,8 km/h (6 Bft)
27.12.2015 11:30 11,1 C 86 % 1017,7 hPa 0,0 l/m 23,1 km/h (4 Bft) S-SW 210 0 min 23 W/m 8,8 C 3,8 C 33,8 km/h (5 Bft)
27.12.2015 11:33 11,1 C 86 % 1017,6 hPa 0,0 l/m 20,8 km/h (4 Bft) SW 232 0 min 14 W/m 8,8 C 4,5 C 32,2 km/h (5 Bft)
27.12.2015 11:36 11,1 C 86 % 1017,7 hPa 0,0 l/m 22,6 km/h (4 Bft) SW 227 0 min 14 W/m 8,8 C 3,9 C 37,0 km/h (5 Bft)
27.12.2015 11:39 11,2 C 86 % 1017,7 hPa 0,0 l/m 24,3 km/h (4 Bft) SW 235 0 min 14 W/m 8,9 C 3,6 C 33,8 km/h (5 Bft)
27.12.2015 11:42 11,2 C 86 % 1017,7 hPa 0,0 l/m 22,3 km/h (4 Bft) SW 226 0 min 14 W/m 8,9 C 4,2 C 35,4 km/h (5 Bft)
27.12.2015 11:45 11,2 C 85 % 1017,8 hPa 0,0 l/m 28,1 km/h (5 Bft) S-SW 213 0 min 14 W/m 8,8 C 2,7 C 38,6 km/h (6 Bft)
27.12.2015 11:48 11,2 C 85 % 1017,8 hPa 0,0 l/m 27,4 km/h (5 Bft) SW 230 0 min 18 W/m 8,8 C 2,9 C 38,6 km/h (6 Bft)
27.12.2015 11:51 11,2 C 85 % 1017,7 hPa 0,0 l/m 20,9 km/h (4 Bft) SW 215 0 min 19 W/m 8,8 C 4,6 C 33,8 km/h (5 Bft)
27.12.2015 11:54 11,2 C 85 % 1017,9 hPa 0,0 l/m 26,9 km/h (4 Bft) SW 227 0 min 19 W/m 8,8 C 3,0 C 38,6 km/h (6 Bft)
27.12.2015 11:57 11,2 C 85 % 1017,9 hPa 0,0 l/m 23,1 km/h (4 Bft) S-SW 205 0 min 18 W/m 8,8 C 3,9 C 30,6 km/h (5 Bft)
27.12.2015 12:00 11,2 C 85 % 1018,0 hPa 0,0 l/m 25,0 km/h (4 Bft) SW 234 0 min 19 W/m 8,8 C 3,5 C 37,0 km/h (5 Bft)
27.12.2015 12:03 11,2 C 85 % 1017,9 hPa 0,0 l/m 25,9 km/h (4 Bft) SW 235 0 min 19 W/m 8,8 C 3,2 C 40,2 km/h (6 Bft)
27.12.2015 12:06 11,2 C 86 % 1017,9 hPa 0,0 l/m 24,9 km/h (4 Bft) SW 220 0 min 18 W/m 8,9 C 3,5 C 40,2 km/h (6 Bft)
27.12.2015 12:09 11,2 C 86 % 1017,9 hPa 0,0 l/m 25,6 km/h (4 Bft) S-SW 202 0 min 16 W/m 8,9 C 3,3 C 37,0 km/h (5 Bft)
27.12.2015 12:12 11,2 C 86 % 1017,9 hPa 0,0 l/m 25,9 km/h (4 Bft) SW 215 0 min 14 W/m 8,9 C 3,2 C 38,6 km/h (6 Bft)
27.12.2015 12:15 11,2 C 86 % 1018,1 hPa 0,0 l/m 25,7 km/h (4 Bft) SW 221 0 min 12 W/m 8,9 C 3,3 C 40,2 km/h (6 Bft)
27.12.2015 12:18 11,2 C 86 % 1018,0 hPa 0,0 l/m 21,2 km/h (4 Bft) SW 226 0 min 14 W/m 8,9 C 4,5 C 33,8 km/h (5 Bft)
27.12.2015 12:21 11,2 C 86 % 1018,2 hPa 0,0 l/m 25,6 km/h (4 Bft) W 262 0 min 14 W/m 8,9 C 3,3 C 38,6 km/h (6 Bft)
27.12.2015 12:24 11,2 C 86 % 1018,1 hPa 0,0 l/m 25,2 km/h (4 Bft) SW 227 0 min 14 W/m 8,9 C 3,4 C 37,0 km/h (5 Bft)
27.12.2015 12:27 11,2 C 86 % 1018,2 hPa 0,0 l/m 24,5 km/h (4 Bft) SW 218 0 min 14 W/m 8,9 C 3,6 C 33,8 km/h (5 Bft)
27.12.2015 12:30 11,2 C 87 % 1018,2 hPa 0,0 l/m 25,3 km/h (4 Bft) W-SW 242 0 min 16 W/m 9,1 C 3,4 C 35,4 km/h (5 Bft)
27.12.2015 12:33 11,1 C 87 % 1018,1 hPa 0,0 l/m 25,1 km/h (4 Bft) SW 217 0 min 18 W/m 9,0 C 3,3 C 38,6 km/h (6 Bft)
27.12.2015 12:36 11,1 C 87 % 1018,0 hPa 0,0 l/m 25,7 km/h (4 Bft) SW 217 0 min 18 W/m 9,0 C 3,2 C 41,8 km/h (6 Bft)
27.12.2015 12:39 11,1 C 87 % 1018,0 hPa 0,0 l/m 24,9 km/h (4 Bft) S 184 0 min 21 W/m 9,0 C 3,3 C 33,8 km/h (5 Bft)
27.12.2015 12:42 11,1 C 87 % 1018,1 hPa 0,0 l/m 23,6 km/h (4 Bft) W-SW 244 0 min 19 W/m 9,0 C 3,7 C 37,0 km/h (5 Bft)
27.12.2015 12:45 11,1 C 87 % 1018,1 hPa 0,0 l/m 22,2 km/h (4 Bft) W-SW 248 0 min 21 W/m 9,0 C 4,1 C 35,4 km/h (5 Bft)
27.12.2015 12:48 11,1 C 88 % 1018,2 hPa 0,0 l/m 19,9 km/h (4 Bft) SW 223 0 min 16 W/m 9,2 C 4,7 C 30,6 km/h (5 Bft)
27.12.2015 12:51 11,0 C 88 % 1018,3 hPa 0,0 l/m 20,2 km/h (4 Bft) W-SW 245 0 min 12 W/m 9,1 C 4,5 C 30,6 km/h (5 Bft)
27.12.2015 12:54 11,0 C 88 % 1018,2 hPa 0,0 l/m 25,0 km/h (4 Bft) SW 229 0 min 12 W/m 9,1 C 3,2 C 41,8 km/h (6 Bft)
27.12.2015 12:57 10,9 C 88 % 1018,3 hPa 0,0 l/m 21,1 km/h (4 Bft) W-SW 247 0 min 11 W/m 9,0 C 4,1 C 32,2 km/h (5 Bft)
27.12.2015 13:00 10,9 C 89 % 1018,3 hPa 0,0 l/m 22,3 km/h (4 Bft) W-SW 242 0 min 9 W/m 9,2 C 3,8 C 37,0 km/h (5 Bft)
27.12.2015 13:03 10,9 C 89 % 1018,3 hPa 0,0 l/m 20,7 km/h (4 Bft) S-SW 205 0 min 9 W/m 9,2 C 4,2 C 32,2 km/h (5 Bft)
27.12.2015 13:06 10,8 C 89 % 1018,3 hPa 0,0 l/m 23,6 km/h (4 Bft) SW 222 0 min 9 W/m 9,1 C 3,3 C 35,4 km/h (5 Bft)
27.12.2015 13:09 10,8 C 90 % 1018,3 hPa 0,0 l/m 20,5 km/h (4 Bft) S-SW 209 0 min 11 W/m 9,2 C 4,2 C 37,0 km/h (5 Bft)
27.12.2015 13:12 10,7 C 90 % 1018,2 hPa 0,0 l/m 22,4 km/h (4 Bft) SW 225 0 min 14 W/m 9,1 C 3,5 C 32,2 km/h (5 Bft)
27.12.2015 13:15 10,7 C 90 % 1018,2 hPa 0,0 l/m 21,1 km/h (4 Bft) W-SW 250 0 min 16 W/m 9,1 C 3,9 C 29,0 km/h (5 Bft)
27.12.2015 13:18 10,6 C 91 % 1018,2 hPa 0,0 l/m 21,8 km/h (4 Bft) S-SW 196 0 min 16 W/m 9,2 C 3,5 C 30,6 km/h (5 Bft)
27.12.2015 13:21 10,6 C 91 % 1018,2 hPa 0,0 l/m 22,8 km/h (4 Bft) SW 234 0 min 19 W/m 9,2 C 3,2 C 30,6 km/h (5 Bft)
27.12.2015 13:24 10,6 C 92 % 1018,2 hPa 0,0 l/m 20,8 km/h (4 Bft) SW 232 0 min 25 W/m 9,4 C 3,8 C 33,8 km/h (5 Bft)
27.12.2015 13:27 10,5 C 92 % 1018,2 hPa 0,0 l/m 23,5 km/h (4 Bft) S-SW 206 0 min 26 W/m 9,3 C 2,9 C 38,6 km/h (6 Bft)
27.12.2015 13:30 10,5 C 93 % 1018,3 hPa 0,0 l/m 21,8 km/h (4 Bft) W-SW 244 0 min 23 W/m 9,4 C 3,4 C 32,2 km/h (5 Bft)
27.12.2015 13:33 10,5 C 93 % 1018,3 hPa 0,0 l/m 22,1 km/h (4 Bft) SW 215 0 min 26 W/m 9,4 C 3,3 C 33,8 km/h (5 Bft)
27.12.2015 13:36 10,4 C 93 % 1018,3 hPa 0,0 l/m 24,8 km/h (4 Bft) W-SW 237 0 min 30 W/m 9,3 C 2,4 C 33,8 km/h (5 Bft)
27.12.2015 13:39 10,4 C 94 % 1018,3 hPa 0,0 l/m 25,2 km/h (4 Bft) W-SW 239 0 min 32 W/m 9,5 C 2,3 C 32,2 km/h (5 Bft)
27.12.2015 13:42 10,4 C 94 % 1018,4 hPa 0,0 l/m 20,9 km/h (4 Bft) SW 236 0 min 33 W/m 9,5 C 3,5 C 32,2 km/h (5 Bft)
27.12.2015 13:45 10,4 C 94 % 1018,4 hPa 0,0 l/m 22,3 km/h (4 Bft) W-SW 248 0 min 30 W/m 9,5 C 3,1 C 35,4 km/h (5 Bft)
27.12.2015 13:48 10,4 C 94 % 1018,3 hPa 0,0 l/m 20,7 km/h (4 Bft) SW 221 0 min 30 W/m 9,5 C 3,6 C 29,0 km/h (5 Bft)
27.12.2015 13:51 10,4 C 94 % 1018,4 hPa 0,0 l/m 22,0 km/h (4 Bft) SW 223 0 min 25 W/m 9,5 C 3,2 C 30,6 km/h (5 Bft)
27.12.2015 13:54 10,4 C 94 % 1018,4 hPa 0,0 l/m 22,9 km/h (4 Bft) SW 216 0 min 23 W/m 9,5 C 2,9 C 35,4 km/h (5 Bft)
27.12.2015 13:57 10,4 C 94 % 1018,3 hPa 0,0 l/m 19,5 km/h (3 Bft) SW 220 0 min 23 W/m 9,5 C 4,0 C 25,7 km/h (4 Bft)
27.12.2015 14:00 10,4 C 94 % 1018,4 hPa 0,0 l/m 21,4 km/h (4 Bft) SW 229 0 min 21 W/m 9,5 C 3,4 C 30,6 km/h (5 Bft)
27.12.2015 14:03 10,4 C 94 % 1018,4 hPa 0,0 l/m 19,9 km/h (4 Bft) SW 233 0 min 18 W/m 9,5 C 3,8 C 29,0 km/h (5 Bft)
27.12.2015 14:06 10,4 C 94 % 1018,4 hPa 0,0 l/m 22,4 km/h (4 Bft) SW 231 0 min 14 W/m 9,5 C 3,1 C 30,6 km/h (5 Bft)
27.12.2015 14:09 10,3 C 94 % 1018,5 hPa 0,0 l/m 22,7 km/h (4 Bft) S-SW 193 0 min 16 W/m 9,4 C 2,9 C 30,6 km/h (5 Bft)
27.12.2015 14:12 10,3 C 94 % 1018,5 hPa 0,0 l/m 22,0 km/h (4 Bft) S-SW 208 0 min 16 W/m 9,4 C 3,1 C 30,6 km/h (5 Bft)
27.12.2015 14:15 10,3 C 94 % 1018,5 hPa 0,0 l/m 22,5 km/h (4 Bft) SW 225 0 min 12 W/m 9,4 C 2,9 C 33,8 km/h (5 Bft)
27.12.2015 14:18 10,3 C 95 % 1018,5 hPa 0,0 l/m 23,5 km/h (4 Bft) SW 219 0 min 11 W/m 9,5 C 2,6 C 33,8 km/h (5 Bft)
27.12.2015 14:21 10,3 C 95 % 1018,5 hPa 0,0 l/m 22,8 km/h (4 Bft) S-SW 211 0 min 12 W/m 9,5 C 2,8 C 37,0 km/h (5 Bft)
27.12.2015 14:24 10,3 C 95 % 1018,6 hPa 0,0 l/m 24,5 km/h (4 Bft) SW 230 0 min 11 W/m 9,5 C 2,4 C 38,6 km/h (6 Bft)
27.12.2015 14:27 10,3 C 95 % 1018,6 hPa 0,0 l/m 21,7 km/h (4 Bft) S-SW 197 0 min 11 W/m 9,5 C 3,1 C 30,6 km/h (5 Bft)
27.12.2015 14:30 10,3 C 95 % 1018,6 hPa 0,0 l/m 21,3 km/h (4 Bft) S-SW 207 0 min 9 W/m 9,5 C 3,3 C 32,2 km/h (5 Bft)
27.12.2015 14:33 10,3 C 95 % 1018,7 hPa 0,0 l/m 22,7 km/h (4 Bft) S-SW 201 0 min 9 W/m 9,5 C 2,9 C 35,4 km/h (5 Bft)
27.12.2015 14:36 10,3 C 95 % 1018,7 hPa 0,0 l/m 19,5 km/h (3 Bft) S-SW 211 0 min 11 W/m 9,5 C 3,8 C 29,0 km/h (5 Bft)
27.12.2015 14:39 10,3 C 95 % 1018,7 hPa 0,0 l/m 18,3 km/h (3 Bft) SW 223 0 min 9 W/m 9,5 C 4,2 C 27,4 km/h (5 Bft)
27.12.2015 14:42 10,3 C 95 % 1018,7 hPa 0,0 l/m 22,4 km/h (4 Bft) SW 215 0 min 7 W/m 9,5 C 2,9 C 35,4 km/h (5 Bft)
27.12.2015 14:45 10,3 C 95 % 1018,8 hPa 0,0 l/m 21,0 km/h (4 Bft) W-SW 239 0 min 5 W/m 9,5 C 3,4 C 30,6 km/h (5 Bft)
27.12.2015 14:48 10,3 C 95 % 1018,9 hPa 0,0 l/m 21,6 km/h (4 Bft) W-SW 252 0 min 5 W/m 9,5 C 3,2 C 32,2 km/h (5 Bft)
27.12.2015 14:51 10,3 C 95 % 1018,9 hPa 0,0 l/m 19,8 km/h (3 Bft) S-SW 205 0 min 5 W/m 9,5 C 3,7 C 30,6 km/h (5 Bft)
27.12.2015 14:54 10,3 C 95 % 1018,9 hPa 0,0 l/m 20,6 km/h (4 Bft) SW 224 0 min 5 W/m 9,5 C 3,5 C 29,0 km/h (5 Bft)
27.12.2015 14:57 10,3 C 96 % 1019,0 hPa 0,2 l/m 20,5 km/h (4 Bft) S-SW 200 0 min 5 W/m 9,7 C 3,5 C 29,0 km/h (5 Bft)
27.12.2015 15:00 10,3 C 96 % 1019,1 hPa 0,0 l/m 18,1 km/h (3 Bft) W-SW 246 0 min 5 W/m 9,7 C 4,3 C 25,7 km/h (4 Bft)
27.12.2015 15:03 10,3 C 96 % 1019,2 hPa 0,0 l/m 19,1 km/h (3 Bft) SW 229 0 min 5 W/m 9,7 C 4,0 C 29,0 km/h (5 Bft)
27.12.2015 15:06 10,2 C 96 % 1019,3 hPa 0,0 l/m 19,1 km/h (3 Bft) S-SW 213 0 min 5 W/m 9,6 C 3,8 C 27,4 km/h (5 Bft)
27.12.2015 15:09 10,2 C 96 % 1019,3 hPa 0,2 l/m 19,3 km/h (3 Bft) SW 222 0 min 5 W/m 9,6 C 3,8 C 29,0 km/h (5 Bft)
27.12.2015 15:12 10,2 C 96 % 1019,4 hPa 0,0 l/m 17,1 km/h (3 Bft) SW 234 0 min 5 W/m 9,6 C 4,5 C 24,1 km/h (4 Bft)
27.12.2015 15:15 10,2 C 96 % 1019,5 hPa 0,0 l/m 15,1 km/h (3 Bft) W-SW 250 0 min 5 W/m 9,6 C 5,3 C 29,0 km/h (5 Bft)
27.12.2015 15:18 10,2 C 96 % 1019,6 hPa 0,2 l/m 13,3 km/h (3 Bft) SW 227 0 min 0 W/m 9,6 C 6,1 C 25,7 km/h (4 Bft)
27.12.2015 15:21 10,2 C 96 % 1019,7 hPa 0,0 l/m 8,1 km/h (2 Bft) W-SW 244 0 min 0 W/m 9,6 C 9,0 C 16,1 km/h (3 Bft)
27.12.2015 15:24 10,2 C 96 % 1019,8 hPa 0,0 l/m 8,9 km/h (2 Bft) SW 234 0 min 0 W/m 9,6 C 8,5 C 17,7 km/h (3 Bft)
27.12.2015 15:27 10,1 C 96 % 1019,8 hPa 0,2 l/m 8,6 km/h (2 Bft) W-SW 255 0 min 0 W/m 9,5 C 8,6 C 14,5 km/h (3 Bft)
27.12.2015 15:30 10,0 C 96 % 1019,9 hPa 0,0 l/m 12,7 km/h (3 Bft) W-SW 244 0 min 0 W/m 9,4 C 6,2 C 20,9 km/h (4 Bft)
27.12.2015 15:33 9,9 C 96 % 1019,9 hPa 0,2 l/m 10,9 km/h (2 Bft) W-SW 254 0 min 0 W/m 9,3 C 7,0 C 16,1 km/h (3 Bft)
27.12.2015 15:36 9,9 C 96 % 1020,0 hPa 0,2 l/m 10,6 km/h (2 Bft) W 267 0 min 0 W/m 9,3 C 7,1 C 17,7 km/h (3 Bft)
27.12.2015 15:39 9,9 C 96 % 1020,1 hPa 0,0 l/m 12,7 km/h (3 Bft) W-NW 284 0 min 0 W/m 9,3 C 6,1 C 20,9 km/h (4 Bft)
27.12.2015 15:42 9,8 C 96 % 1020,1 hPa 0,2 l/m 12,1 km/h (2 Bft) W-NW 289 0 min 0 W/m 9,2 C 6,2 C 20,9 km/h (4 Bft)
27.12.2015 15:45 9,8 C 96 % 1020,1 hPa 0,0 l/m 15,1 km/h (3 Bft) W-SW 252 0 min 0 W/m 9,2 C 4,8 C 27,4 km/h (5 Bft)
27.12.2015 15:48 9,7 C 96 % 1020,1 hPa 0,0 l/m 15,5 km/h (3 Bft) W 273 0 min 0 W/m 9,1 C 4,6 C 24,1 km/h (4 Bft)
27.12.2015 15:51 9,7 C 96 % 1020,2 hPa 0,2 l/m 15,8 km/h (3 Bft) W-SW 238 0 min 0 W/m 9,1 C 4,4 C 30,6 km/h (5 Bft)
27.12.2015 15:54 9,6 C 96 % 1020,2 hPa 0,0 l/m 14,3 km/h (3 Bft) SW 224 0 min 0 W/m 9,0 C 5,0 C 25,7 km/h (4 Bft)
27.12.2015 15:57 9,5 C 96 % 1020,2 hPa 0,0 l/m 12,8 km/h (3 Bft) S-SW 210 0 min 0 W/m 8,9 C 5,5 C 22,5 km/h (4 Bft)
27.12.2015 16:00 9,5 C 96 % 1020,3 hPa 0,0 l/m 11,0 km/h (2 Bft) W-SW 241 0 min 0 W/m 8,9 C 6,5 C 20,9 km/h (4 Bft)
27.12.2015 16:03 9,4 C 96 % 1020,3 hPa 0,0 l/m 13,8 km/h (3 Bft) W-SW 252 0 min 0 W/m 8,8 C 4,9 C 24,1 km/h (4 Bft)
27.12.2015 16:06 9,4 C 96 % 1020,4 hPa 0,0 l/m 12,7 km/h (3 Bft) W 281 0 min 0 W/m 8,8 C 5,5 C 22,5 km/h (4 Bft)
27.12.2015 16:09 9,4 C 96 % 1020,3 hPa 0,0 l/m 10,0 km/h (2 Bft) SW 215 0 min 0 W/m 8,8 C 6,9 C 16,1 km/h (3 Bft)
27.12.2015 16:12 9,3 C 97 % 1020,3 hPa 0,0 l/m 10,8 km/h (2 Bft) SW 225 0 min 0 W/m 8,8 C 6,4 C 22,5 km/h (4 Bft)
27.12.2015 16:15 9,3 C 97 % 1020,3 hPa 0,0 l/m 10,2 km/h (2 Bft) W-NW 292 0 min 0 W/m 8,8 C 6,7 C 16,1 km/h (3 Bft)
27.12.2015 16:18 9,3 C 97 % 1020,1 hPa 0,2 l/m 9,9 km/h (2 Bft) W 266 0 min 0 W/m 8,8 C 6,9 C 16,1 km/h (3 Bft)
27.12.2015 16:21 9,3 C 97 % 1020,1 hPa 0,0 l/m 8,2 km/h (2 Bft) S-SO 163 0 min 0 W/m 8,8 C 8,0 C 12,9 km/h (3 Bft)
27.12.2015 16:24 9,3 C 97 % 1020,0 hPa 0,0 l/m 9,9 km/h (2 Bft) W-NW 284 0 min 0 W/m 8,8 C 6,9 C 16,1 km/h (3 Bft)
27.12.2015 16:27 9,3 C 97 % 1020,0 hPa 0,0 l/m 7,5 km/h (2 Bft) W-SW 254 0 min 0 W/m 8,8 C 8,5 C 17,7 km/h (3 Bft)
27.12.2015 16:30 9,3 C 97 % 1020,0 hPa 0,0 l/m 10,1 km/h (2 Bft) SW 218 0 min 0 W/m 8,8 C 6,8 C 16,1 km/h (3 Bft)
27.12.2015 16:33 9,3 C 97 % 1019,9 hPa 0,0 l/m 9,3 km/h (2 Bft) W-NW 287 0 min 0 W/m 8,8 C 7,3 C 14,5 km/h (3 Bft)
27.12.2015 16:36 9,3 C 97 % 1020,0 hPa 0,0 l/m 5,7 km/h (2 Bft) SW 217 0 min 0 W/m 8,8 C 9,3 C 11,3 km/h (2 Bft)
27.12.2015 16:39 9,3 C 97 % 1020,0 hPa 0,0 l/m 7,0 km/h (2 Bft) W-SW 257 0 min 0 W/m 8,8 C 8,9 C 14,5 km/h (3 Bft)
27.12.2015 16:42 9,3 C 97 % 1020,2 hPa 0,0 l/m 9,3 km/h (2 Bft) SW 229 0 min 0 W/m 8,8 C 7,3 C 16,1 km/h (3 Bft)
27.12.2015 16:45 9,3 C 97 % 1020,3 hPa 0,0 l/m 11,2 km/h (2 Bft) W-SW 248 0 min 0 W/m 8,8 C 6,1 C 17,7 km/h (3 Bft)
27.12.2015 16:48 9,3 C 97 % 1020,4 hPa 0,0 l/m 10,4 km/h (2 Bft) SW 232 0 min 0 W/m 8,8 C 6,6 C 17,7 km/h (3 Bft)
27.12.2015 16:51 9,3 C 97 % 1020,5 hPa 0,0 l/m 10,8 km/h (2 Bft) SW 225 0 min 0 W/m 8,8 C 6,4 C 17,7 km/h (3 Bft)
27.12.2015 16:54 9,3 C 97 % 1020,6 hPa 0,0 l/m 10,7 km/h (2 Bft) SW 224 0 min 0 W/m 8,8 C 6,4 C 16,1 km/h (3 Bft)
27.12.2015 16:57 9,3 C 97 % 1020,9 hPa 0,0 l/m 13,5 km/h (3 Bft) W-SW 237 0 min 0 W/m 8,8 C 5,0 C 20,9 km/h (4 Bft)
27.12.2015 17:00 9,3 C 97 % 1021,0 hPa 0,0 l/m 11,9 km/h (2 Bft) W 277 0 min 0 W/m 8,8 C 5,8 C 19,3 km/h (3 Bft)
27.12.2015 17:03 9,3 C 97 % 1021,1 hPa 0,0 l/m 10,3 km/h (2 Bft) W-SW 254 0 min 0 W/m 8,8 C 6,6 C 16,1 km/h (3 Bft)
27.12.2015 17:06 9,3 C 97 % 1021,3 hPa 0,0 l/m 12,0 km/h (2 Bft) W-NW 290 0 min 0 W/m 8,8 C 5,7 C 19,3 km/h (3 Bft)
27.12.2015 17:09 9,4 C 97 % 1021,5 hPa 0,0 l/m 13,6 km/h (3 Bft) W 271 0 min 0 W/m 8,9 C 5,0 C 27,4 km/h (5 Bft)
27.12.2015 17:12 9,4 C 97 % 1021,5 hPa 0,0 l/m 11,3 km/h (2 Bft) W 272 0 min 0 W/m 8,9 C 6,2 C 20,9 km/h (4 Bft)
27.12.2015 17:15 9,4 C 97 % 1021,5 hPa 0,0 l/m 12,4 km/h (2 Bft) SW 217 0 min 0 W/m 8,9 C 5,6 C 17,7 km/h (3 Bft)
27.12.2015 17:18 9,4 C 97 % 1021,6 hPa 0,0 l/m 13,3 km/h (3 Bft) W 265 0 min 0 W/m 8,9 C 5,2 C 22,5 km/h (4 Bft)
27.12.2015 17:21 9,4 C 97 % 1021,6 hPa 0,0 l/m 11,7 km/h (2 Bft) W-SW 237 0 min 0 W/m 8,9 C 6,0 C 19,3 km/h (3 Bft)
27.12.2015 17:24 9,4 C 97 % 1021,7 hPa 0,0 l/m 11,7 km/h (2 Bft) SW 236 0 min 0 W/m 8,9 C 6,0 C 22,5 km/h (4 Bft)
27.12.2015 17:27 9,4 C 97 % 1021,8 hPa 0,0 l/m 10,5 km/h (2 Bft) W 275 0 min 0 W/m 8,9 C 6,6 C 17,7 km/h (3 Bft)
27.12.2015 17:30 9,4 C 97 % 1021,8 hPa 0,0 l/m 13,8 km/h (3 Bft) W 277 0 min 0 W/m 8,9 C 4,9 C 22,5 km/h (4 Bft)
27.12.2015 17:33 9,3 C 97 % 1021,8 hPa 0,0 l/m 13,3 km/h (3 Bft) W 261 0 min 0 W/m 8,8 C 5,1 C 19,3 km/h (3 Bft)
27.12.2015 17:36 9,3 C 97 % 1021,8 hPa 0,0 l/m 9,0 km/h (2 Bft) W-SW 252 0 min 0 W/m 8,8 C 7,4 C 20,9 km/h (4 Bft)
27.12.2015 17:39 9,3 C 97 % 1021,8 hPa 0,0 l/m 9,5 km/h (2 Bft) W-SW 248 0 min 0 W/m 8,8 C 7,1 C 22,5 km/h (4 Bft)
27.12.2015 17:42 9,2 C 97 % 1021,8 hPa 0,0 l/m 10,2 km/h (2 Bft) W-SW 257 0 min 0 W/m 8,7 C 6,6 C 16,1 km/h (3 Bft)
27.12.2015 17:45 9,2 C 97 % 1021,8 hPa 0,0 l/m 11,6 km/h (2 Bft) NW 312 0 min 0 W/m 8,7 C 5,8 C 20,9 km/h (4 Bft)
27.12.2015 17:48 9,1 C 97 % 1021,9 hPa 0,0 l/m 14,0 km/h (3 Bft) W 261 0 min 0 W/m 8,6 C 4,5 C 22,5 km/h (4 Bft)
27.12.2015 17:51 9,1 C 97 % 1021,8 hPa 0,0 l/m 12,8 km/h (3 Bft) W-SW 246 0 min 0 W/m 8,6 C 5,1 C 19,3 km/h (3 Bft)
27.12.2015 17:54 9,0 C 97 % 1021,9 hPa 0,0 l/m 10,4 km/h (2 Bft) W-SW 257 0 min 0 W/m 8,5 C 6,3 C 17,7 km/h (3 Bft)
27.12.2015 17:57 8,9 C 97 % 1021,8 hPa 0,0 l/m 9,1 km/h (2 Bft) NW 306 0 min 0 W/m 8,4 C 6,9 C 16,1 km/h (3 Bft)
27.12.2015 18:00 8,9 C 97 % 1021,7 hPa 0,0 l/m 9,4 km/h (2 Bft) W-NW 282 0 min 0 W/m 8,4 C 6,8 C 16,1 km/h (3 Bft)
27.12.2015 18:03 8,8 C 96 % 1021,8 hPa 0,0 l/m 8,3 km/h (2 Bft) SW 225 0 min 0 W/m 8,2 C 7,4 C 19,3 km/h (3 Bft)
27.12.2015 18:06 8,8 C 97 % 1021,8 hPa 0,0 l/m 7,4 km/h (2 Bft) W 260 0 min 0 W/m 8,4 C 8,0 C 12,9 km/h (3 Bft)
27.12.2015 18:09 8,7 C 97 % 1022,0 hPa 0,0 l/m 7,3 km/h (2 Bft) W-NW 289 0 min 0 W/m 8,3 C 8,0 C 14,5 km/h (3 Bft)
27.12.2015 18:12 8,7 C 97 % 1022,0 hPa 0,0 l/m 6,6 km/h (2 Bft) W-SW 244 0 min 0 W/m 8,3 C 8,6 C 12,9 km/h (3 Bft)
27.12.2015 18:15 8,6 C 96 % 1022,1 hPa 0,0 l/m 7,7 km/h (2 Bft) W-SW 252 0 min 0 W/m 8,0 C 7,6 C 17,7 km/h (3 Bft)
27.12.2015 18:18 8,6 C 96 % 1022,1 hPa 0,0 l/m 7,8 km/h (2 Bft) W 263 0 min 0 W/m 8,0 C 7,5 C 12,9 km/h (3 Bft)
27.12.2015 18:21 8,5 C 96 % 1022,4 hPa 0,0 l/m 7,7 km/h (2 Bft) NW 304 0 min 0 W/m 7,9 C 7,5 C 12,9 km/h (3 Bft)
27.12.2015 18:24 8,4 C 96 % 1022,4 hPa 0,0 l/m 8,6 km/h (2 Bft) W-NW 285 0 min 0 W/m 7,8 C 6,7 C 16,1 km/h (3 Bft)
27.12.2015 18:27 8,4 C 96 % 1022,5 hPa 0,0 l/m 7,6 km/h (2 Bft) W 276 0 min 0 W/m 7,8 C 7,5 C 14,5 km/h (3 Bft)
27.12.2015 18:30 8,3 C 96 % 1022,7 hPa 0,0 l/m 8,3 km/h (2 Bft) W-SW 248 0 min 0 W/m 7,7 C 6,9 C 12,9 km/h (3 Bft)
27.12.2015 18:33 8,3 C 96 % 1022,8 hPa 0,0 l/m 6,3 km/h (2 Bft) W 277 0 min 0 W/m 7,7 C 8,3 C 14,5 km/h (3 Bft)
27.12.2015 18:36 8,3 C 96 % 1022,9 hPa 0,0 l/m 9,1 km/h (2 Bft) W 263 0 min 0 W/m 7,7 C 6,3 C 17,7 km/h (3 Bft)
27.12.2015 18:39 8,2 C 96 % 1022,9 hPa 0,0 l/m 7,2 km/h (2 Bft) W-SW 245 0 min 0 W/m 7,6 C 7,6 C 11,3 km/h (2 Bft)
27.12.2015 18:42 8,2 C 96 % 1022,9 hPa 0,0 l/m 7,6 km/h (2 Bft) W-NW 285 0 min 0 W/m 7,6 C 7,3 C 12,9 km/h (3 Bft)
27.12.2015 18:45 8,2 C 96 % 1022,8 hPa 0,0 l/m 6,1 km/h (2 Bft) W-SW 247 0 min 0 W/m 7,6 C 8,2 C 11,3 km/h (2 Bft)
27.12.2015 18:48 8,2 C 96 % 1022,9 hPa 0,0 l/m 7,5 km/h (2 Bft) SW 229 0 min 0 W/m 7,6 C 7,3 C 14,5 km/h (3 Bft)
27.12.2015 18:51 8,1 C 96 % 1022,8 hPa 0,0 l/m 6,8 km/h (2 Bft) W 273 0 min 0 W/m 7,5 C 7,8 C 11,3 km/h (2 Bft)
27.12.2015 18:54 8,1 C 96 % 1023,0 hPa 0,0 l/m 5,9 km/h (2 Bft) W 279 0 min 0 W/m 7,5 C 8,1 C 12,9 km/h (3 Bft)
27.12.2015 18:57 8,1 C 96 % 1023,0 hPa 0,0 l/m 6,0 km/h (2 Bft) W 268 0 min 0 W/m 7,5 C 8,1 C 12,9 km/h (3 Bft)
27.12.2015 19:00 8,0 C 95 % 1023,0 hPa 0,0 l/m 7,0 km/h (2 Bft) W-SW 248 0 min 0 W/m 7,2 C 7,5 C 12,9 km/h (3 Bft)
27.12.2015 19:03 8,0 C 95 % 1023,1 hPa 0,0 l/m 7,6 km/h (2 Bft) W 265 0 min 0 W/m 7,2 C 7,1 C 12,9 km/h (3 Bft)
27.12.2015 19:06 7,9 C 95 % 1023,1 hPa 0,0 l/m 4,9 km/h (1 Bft) W 280 0 min 0 W/m 7,1 C 7,9 C 9,7 km/h (2 Bft)
27.12.2015 19:09 7,9 C 95 % 1023,2 hPa 0,0 l/m 6,9 km/h (2 Bft) W-SW 237 0 min 0 W/m 7,1 C 7,5 C 12,9 km/h (3 Bft)
27.12.2015 19:12 7,9 C 95 % 1023,2 hPa 0,0 l/m 7,0 km/h (2 Bft) W 261 0 min 0 W/m 7,1 C 7,4 C 16,1 km/h (3 Bft)
27.12.2015 19:15 7,8 C 95 % 1023,3 hPa 0,0 l/m 5,5 km/h (2 Bft) W 279 0 min 0 W/m 7,0 C 7,8 C 12,9 km/h (3 Bft)
27.12.2015 19:18 7,8 C 95 % 1023,3 hPa 0,0 l/m 4,6 km/h (1 Bft) W 277 0 min 0 W/m 7,0 C 7,8 C 9,7 km/h (2 Bft)
27.12.2015 19:21 7,8 C 95 % 1023,3 hPa 0,0 l/m 6,1 km/h (2 Bft) W 260 0 min 0 W/m 7,0 C 7,8 C 16,1 km/h (3 Bft)
27.12.2015 19:24 7,8 C 95 % 1023,3 hPa 0,0 l/m 5,7 km/h (2 Bft) W-NW 294 0 min 0 W/m 7,0 C 7,8 C 11,3 km/h (2 Bft)
27.12.2015 19:27 7,7 C 95 % 1023,3 hPa 0,0 l/m 5,7 km/h (2 Bft) W-SW 247 0 min 0 W/m 7,0 C 7,7 C 9,7 km/h (2 Bft)
27.12.2015 19:30 7,7 C 95 % 1023,4 hPa 0,0 l/m 6,2 km/h (2 Bft) W-SW 254 0 min 0 W/m 7,0 C 7,7 C 12,9 km/h (3 Bft)
27.12.2015 19:33 7,7 C 95 % 1023,4 hPa 0,0 l/m 7,7 km/h (2 Bft) W 267 0 min 0 W/m 7,0 C 6,7 C 11,3 km/h (2 Bft)
27.12.2015 19:36 7,7 C 95 % 1023,4 hPa 0,0 l/m 7,9 km/h (2 Bft) W 273 0 min 0 W/m 7,0 C 6,5 C 12,9 km/h (3 Bft)
27.12.2015 19:39 7,7 C 95 % 1023,4 hPa 0,0 l/m 7,3 km/h (2 Bft) W-SW 247 0 min 0 W/m 7,0 C 7,0 C 12,9 km/h (3 Bft)
27.12.2015 19:42 7,7 C 95 % 1023,5 hPa 0,0 l/m 5,7 km/h (2 Bft) W-SW 238 0 min 0 W/m 7,0 C 7,7 C 8,0 km/h (2 Bft)
27.12.2015 19:45 7,7 C 95 % 1023,5 hPa 0,0 l/m 5,9 km/h (2 Bft) W-SW 249 0 min 0 W/m 7,0 C 7,7 C 9,7 km/h (2 Bft)
27.12.2015 19:48 7,6 C 95 % 1023,5 hPa 0,0 l/m 6,7 km/h (2 Bft) W 273 0 min 0 W/m 6,9 C 7,4 C 11,3 km/h (2 Bft)
27.12.2015 19:51 7,6 C 95 % 1023,6 hPa 0,0 l/m 6,4 km/h (2 Bft) W 265 0 min 0 W/m 6,9 C 7,6 C 12,9 km/h (3 Bft)
27.12.2015 19:54 7,6 C 95 % 1023,7 hPa 0,0 l/m 5,1 km/h (1 Bft) W 275 0 min 0 W/m 6,9 C 7,6 C 9,7 km/h (2 Bft)
27.12.2015 19:57 7,6 C 95 % 1023,7 hPa 0,0 l/m 5,3 km/h (1 Bft) W 273 0 min 0 W/m 6,9 C 7,6 C 8,0 km/h (2 Bft)
27.12.2015 20:00 7,6 C 95 % 1023,8 hPa 0,0 l/m 4,1 km/h (1 Bft) W-SW 252 0 min 0 W/m 6,9 C 7,6 C 6,4 km/h (2 Bft)
27.12.2015 20:03 7,6 C 95 % 1023,8 hPa 0,0 l/m 4,3 km/h (1 Bft) SW 234 0 min 0 W/m 6,9 C 7,6 C 8,0 km/h (2 Bft)
27.12.2015 20:06 7,6 C 95 % 1023,9 hPa 0,0 l/m 4,0 km/h (1 Bft) W-SW 252 0 min 0 W/m 6,9 C 7,6 C 9,7 km/h (2 Bft)
27.12.2015 20:09 7,5 C 95 % 1023,9 hPa 0,0 l/m 5,1 km/h (1 Bft) W-SW 254 0 min 0 W/m 6,8 C 7,5 C 9,7 km/h (2 Bft)
27.12.2015 20:12 7,5 C 95 % 1023,9 hPa 0,0 l/m 5,4 km/h (2 Bft) W-SW 252 0 min 0 W/m 6,8 C 7,5 C 8,0 km/h (2 Bft)
27.12.2015 20:15 7,4 C 95 % 1024,0 hPa 0,0 l/m 4,8 km/h (1 Bft) W-SW 247 0 min 0 W/m 6,7 C 7,4 C 11,3 km/h (2 Bft)
27.12.2015 20:30 7,4 C 95 % 1024,2 hPa 0,0 l/m 8,0 km/h (2 Bft) W 270 0 min 0 W/m 6,7 C 6,1 C 14,5 km/h (3 Bft)
27.12.2015 20:45 7,4 C 95 % 1024,4 hPa 0,0 l/m 6,4 km/h (2 Bft) W 270 0 min 0 W/m 6,7 C 7,4 C 14,5 km/h (3 Bft)
27.12.2015 21:00 7,3 C 95 % 1024,5 hPa 0,0 l/m 6,4 km/h (2 Bft) W 270 0 min 0 W/m 6,6 C 7,3 C 12,9 km/h (3 Bft)
27.12.2015 21:15 7,2 C 94 % 1024,8 hPa 0,0 l/m 6,4 km/h (2 Bft) W-SW 247 0 min 0 W/m 6,3 C 7,2 C 12,9 km/h (3 Bft)
27.12.2015 21:30 7,1 C 95 % 1024,9 hPa 0,0 l/m 4,8 km/h (1 Bft) W 270 0 min 0 W/m 6,4 C 7,1 C 9,7 km/h (2 Bft)
27.12.2015 21:45 7,0 C 95 % 1025,0 hPa 0,0 l/m 4,8 km/h (1 Bft) W-SW 247 0 min 0 W/m 6,3 C 7,0 C 11,3 km/h (2 Bft)
27.12.2015 22:00 6,4 C 94 % 1025,0 hPa 0,0 l/m 4,8 km/h (1 Bft) SW 225 0 min 0 W/m 5,5 C 6,4 C 8,0 km/h (2 Bft)
27.12.2015 22:18 6,4 C 95 % 1025,2 hPa 0,0 l/m 4,9 km/h (1 Bft) W-SW 254 0 min 0 W/m 5,7 C 6,4 C 11,3 km/h (2 Bft)
27.12.2015 22:21 6,4 C 95 % 1025,2 hPa 0,0 l/m 4,1 km/h (1 Bft) W-SW 250 0 min 0 W/m 5,7 C 6,4 C 6,4 km/h (2 Bft)
27.12.2015 22:24 6,5 C 95 % 1025,2 hPa 0,0 l/m 4,6 km/h (1 Bft) W-SW 254 0 min 0 W/m 5,8 C 6,5 C 8,0 km/h (2 Bft)
27.12.2015 22:27 6,5 C 95 % 1025,2 hPa 0,0 l/m 5,1 km/h (1 Bft) W 261 0 min 0 W/m 5,8 C 6,5 C 8,0 km/h (2 Bft)
27.12.2015 22:30 6,6 C 95 % 1025,2 hPa 0,0 l/m 5,0 km/h (1 Bft) SW 232 0 min 0 W/m 5,9 C 6,6 C 9,7 km/h (2 Bft)
27.12.2015 22:33 6,6 C 96 % 1025,2 hPa 0,0 l/m 5,4 km/h (2 Bft) SW 225 0 min 0 W/m 6,0 C 6,6 C 11,3 km/h (2 Bft)
27.12.2015 22:36 6,7 C 96 % 1025,3 hPa 0,0 l/m 5,1 km/h (1 Bft) W 272 0 min 0 W/m 6,1 C 6,7 C 9,7 km/h (2 Bft)
27.12.2015 22:39 6,7 C 96 % 1025,3 hPa 0,0 l/m 5,4 km/h (2 Bft) W-SW 256 0 min 0 W/m 6,1 C 6,7 C 9,7 km/h (2 Bft)
27.12.2015 22:42 6,7 C 96 % 1025,4 hPa 0,0 l/m 5,9 km/h (2 Bft) W-SW 238 0 min 0 W/m 6,1 C 6,7 C 9,7 km/h (2 Bft)
27.12.2015 22:45 6,7 C 96 % 1025,4 hPa 0,0 l/m 4,5 km/h (1 Bft) W 262 0 min 0 W/m 6,1 C 6,7 C 9,7 km/h (2 Bft)
27.12.2015 22:48 6,7 C 96 % 1025,4 hPa 0,0 l/m 5,2 km/h (1 Bft) W-SW 244 0 min 0 W/m 6,1 C 6,7 C 9,7 km/h (2 Bft)
27.12.2015 22:51 6,7 C 96 % 1025,4 hPa 0,0 l/m 5,4 km/h (2 Bft) SW 223 0 min 0 W/m 6,1 C 6,7 C 9,7 km/h (2 Bft)
27.12.2015 22:54 6,7 C 96 % 1025,4 hPa 0,0 l/m 4,9 km/h (1 Bft) W-SW 252 0 min 0 W/m 6,1 C 6,7 C 11,3 km/h (2 Bft)
27.12.2015 22:57 6,7 C 96 % 1025,4 hPa 0,0 l/m 4,4 km/h (1 Bft) SW 235 0 min 0 W/m 6,1 C 6,7 C 6,4 km/h (2 Bft)
27.12.2015 23:00 6,7 C 96 % 1025,5 hPa 0,0 l/m 4,6 km/h (1 Bft) SW 236 0 min 0 W/m 6,1 C 6,7 C 9,7 km/h (2 Bft)
27.12.2015 23:03 6,7 C 96 % 1025,5 hPa 0,0 l/m 5,4 km/h (2 Bft) W-SW 240 0 min 0 W/m 6,1 C 6,7 C 8,0 km/h (2 Bft)
27.12.2015 23:06 6,7 C 96 % 1025,5 hPa 0,0 l/m 3,0 km/h (1 Bft) SW 219 0 min 0 W/m 6,1 C 6,7 C 6,4 km/h (2 Bft)
27.12.2015 23:09 6,7 C 95 % 1025,6 hPa 0,0 l/m 3,5 km/h (1 Bft) SW 222 0 min 0 W/m 6,0 C 6,7 C 4,8 km/h (1 Bft)
27.12.2015 23:12 6,6 C 95 % 1025,6 hPa 0,0 l/m 2,7 km/h (1 Bft) SW 222 0 min 0 W/m 5,9 C 6,6 C 4,8 km/h (1 Bft)
27.12.2015 23:15 6,5 C 95 % 1025,7 hPa 0,0 l/m 3,5 km/h (1 Bft) SW 222 0 min 0 W/m 5,8 C 6,5 C 6,4 km/h (2 Bft)
27.12.2015 23:18 6,4 C 95 % 1025,8 hPa 0,0 l/m 3,8 km/h (1 Bft) SW 230 0 min 0 W/m 5,7 C 6,4 C 6,4 km/h (2 Bft)
27.12.2015 23:21 6,3 C 95 % 1025,8 hPa 0,0 l/m 3,1 km/h (1 Bft) SW 231 0 min 0 W/m 5,6 C 6,3 C 4,8 km/h (1 Bft)
27.12.2015 23:24 6,3 C 95 % 1025,8 hPa 0,0 l/m 2,6 km/h (1 Bft) SW 236 0 min 0 W/m 5,6 C 6,3 C 4,8 km/h (1 Bft)
27.12.2015 23:27 6,2 C 95 % 1025,8 hPa 0,0 l/m 2,8 km/h (1 Bft) W-SW 242 0 min 0 W/m 5,5 C 6,2 C 6,4 km/h (2 Bft)
27.12.2015 23:30 6,2 C 95 % 1025,8 hPa 0,0 l/m 3,5 km/h (1 Bft) W-SW 258 0 min 0 W/m 5,5 C 6,2 C 8,0 km/h (2 Bft)
27.12.2015 23:33 6,2 C 95 % 1025,9 hPa 0,0 l/m 5,3 km/h (1 Bft) W-SW 238 0 min 0 W/m 5,5 C 6,2 C 11,3 km/h (2 Bft)
27.12.2015 23:36 6,2 C 95 % 1025,9 hPa 0,0 l/m 5,1 km/h (1 Bft) SW 228 0 min 0 W/m 5,5 C 6,2 C 9,7 km/h (2 Bft)
27.12.2015 23:39 6,3 C 96 % 1025,9 hPa 0,0 l/m 4,8 km/h (1 Bft) W-NW 286 0 min 0 W/m 5,7 C 6,3 C 9,7 km/h (2 Bft)
27.12.2015 23:42 6,3 C 96 % 1025,8 hPa 0,0 l/m 5,2 km/h (1 Bft) W-SW 242 0 min 0 W/m 5,7 C 6,3 C 9,7 km/h (2 Bft)
27.12.2015 23:45 6,4 C 96 % 1025,8 hPa 0,0 l/m 6,5 km/h (2 Bft) W-SW 243 0 min 0 W/m 5,8 C 6,3 C 11,3 km/h (2 Bft)
27.12.2015 23:48 6,5 C 96 % 1025,8 hPa 0,0 l/m 6,7 km/h (2 Bft) W 275 0 min 0 W/m 5,9 C 6,3 C 12,9 km/h (3 Bft)
27.12.2015 23:51 6,6 C 96 % 1026,0 hPa 0,0 l/m 6,0 km/h (2 Bft) W 275 0 min 0 W/m 6,0 C 6,6 C 11,3 km/h (2 Bft)
27.12.2015 23:54 6,7 C 96 % 1026,0 hPa 0,0 l/m 5,8 km/h (2 Bft) W 271 0 min 0 W/m 6,1 C 6,7 C 11,3 km/h (2 Bft)
27.12.2015 23:57 6,7 C 96 % 1026,1 hPa 0,0 l/m 5,3 km/h (1 Bft) W-SW 254 0 min 0 W/m 6,1 C 6,7 C 8,0 km/h (2 Bft)
_ Min-Zeit 23:27 08:12 06:33 - 23:24 - - - - 23:27 13:39 23:09
Minimum _ 6,2 C 83 % 1015,2 hPa - 2,6 km/h (1 Bft) - - - - 5,5 C 2,3 C 4,8 km/h (1 Bft)
_ Max-Zeit 03:06 16:12 23:57 14:57 11:18 - - 00:00 13:42 00:03 16:36 01:54
Maximum _ 11,7 C 97 % 1026,1 hPa 0,2 l/m 29,2 km/h
SW (5 Bft)
- - 0 min 33 W/m 9,8 C 9,3 C 46,7 km/h
S (6 Bft)
Durchschnitt _ 10,0 C 90 % 1019,1 hPa #1,8 l/m 16,6 km/h (3 Bft) SW - #0 min. 13 W/m 8,4 C 5,2 C 26,5 km/h (4 Bft)
copyright by Holger Just